Wetterdaten: Freitag, 26.02.2010
Datum Zeit Temp. Innen Temp. Aussen UV X Diff Temp. Feuchte Inne Feuchte Auss Sonnenschein Luftdruck Regen ab 0,1 Wind Sonnenschein Windben
26.02.2010 00:02 13,8 C 8,4 C 0,0 UV-I 0,0 C 60 % 91 % 0 % 987,4 hPa 0,1 l/m 5,6 km/h (1 Bft) 0 min 6,0 km/h (2 Bft)
26.02.2010 00:04 13,8 C 8,4 C 0,0 UV-I 0,0 C 60 % 91 % 0 % 987,4 hPa 0,0 l/m 5,6 km/h (1 Bft) 0 min 6,0 km/h (2 Bft)
26.02.2010 00:06 13,8 C 8,4 C 0,0 UV-I 0,0 C 60 % 91 % 0 % 987,4 hPa 0,0 l/m 4,0 km/h (1 Bft) 0 min 5,1 km/h (1 Bft)
26.02.2010 00:08 13,8 C 8,4 C 0,0 UV-I 0,0 C 60 % 91 % 0 % 987,4 hPa 0,0 l/m 3,2 km/h (1 Bft) 0 min 0,0 km/h (0 Bft)
26.02.2010 00:12 13,8 C 8,5 C 0,0 UV-I 0,0 C 60 % 91 % 0 % 986,9 hPa 0,0 l/m 2,4 km/h (1 Bft) 0 min 5,3 km/h (1 Bft)
26.02.2010 00:14 13,8 C 8,4 C 0,0 UV-I 0,0 C 60 % 91 % 0 % 986,9 hPa 0,0 l/m 1,6 km/h (1 Bft) 0 min 0,0 km/h (0 Bft)
26.02.2010 00:16 13,9 C 8,4 C 0,0 UV-I 0,0 C 60 % 91 % 0 % 986,9 hPa 0,0 l/m 1,2 km/h (1 Bft) 0 min 0,0 km/h (0 Bft)
26.02.2010 00:20 13,8 C 8,3 C 0,0 UV-I 0,0 C 60 % 91 % 0 % 986,9 hPa 0,0 l/m 1,6 km/h (1 Bft) 0 min 4,6 km/h (1 Bft)
26.02.2010 00:24 13,9 C 8,3 C 0,0 UV-I 0,0 C 60 % 91 % 0 % 986,9 hPa 0,0 l/m 1,2 km/h (1 Bft) 0 min 3,6 km/h (1 Bft)
26.02.2010 00:38 13,9 C 8,2 C 0,0 UV-I 0,0 C 60 % 91 % 0 % 987,0 hPa 0,0 l/m 2,8 km/h (1 Bft) 0 min 7,2 km/h (2 Bft)
26.02.2010 00:40 13,9 C 8,2 C 0,0 UV-I 0,0 C 60 % 91 % 0 % 987,0 hPa 0,0 l/m 2,4 km/h (1 Bft) 0 min 0,0 km/h (0 Bft)
26.02.2010 00:42 13,9 C 8,1 C 0,0 UV-I 0,0 C 60 % 91 % 0 % 987,0 hPa 0,0 l/m 2,8 km/h (1 Bft) 0 min 9,4 km/h (2 Bft)
26.02.2010 00:44 13,8 C 8,1 C 0,0 UV-I 0,0 C 60 % 91 % 0 % 987,0 hPa 0,0 l/m 4,0 km/h (1 Bft) 0 min 6,7 km/h (2 Bft)
26.02.2010 00:46 13,9 C 8,1 C 0,0 UV-I 0,0 C 60 % 91 % 0 % 987,0 hPa 0,0 l/m 4,0 km/h (1 Bft) 0 min 4,1 km/h (1 Bft)
26.02.2010 00:48 13,9 C 8,1 C 0,0 UV-I 0,0 C 60 % 91 % 0 % 987,0 hPa 0,0 l/m 3,2 km/h (1 Bft) 0 min 0,0 km/h (0 Bft)
26.02.2010 00:50 13,8 C 8,1 C 0,0 UV-I 0,0 C 60 % 91 % 0 % 987,0 hPa 0,0 l/m 3,2 km/h (1 Bft) 0 min 0,0 km/h (0 Bft)
26.02.2010 00:52 13,8 C 8,0 C 0,0 UV-I 0,0 C 60 % 91 % 0 % 986,9 hPa 0,0 l/m 3,6 km/h (1 Bft) 0 min 7,0 km/h (2 Bft)
26.02.2010 00:54 13,8 C 8,1 C 0,0 UV-I 0,0 C 60 % 91 % 0 % 986,9 hPa 0,0 l/m 4,0 km/h (1 Bft) 0 min 7,5 km/h (2 Bft)
26.02.2010 00:56 13,8 C 8,0 C 0,0 UV-I 0,0 C 60 % 91 % 0 % 986,9 hPa 0,0 l/m 4,0 km/h (1 Bft) 0 min 3,8 km/h (1 Bft)
26.02.2010 00:58 13,8 C 8,1 C 0,0 UV-I 0,0 C 60 % 91 % 0 % 986,9 hPa 0,0 l/m 4,8 km/h (1 Bft) 0 min 6,7 km/h (2 Bft)
26.02.2010 01:00 13,8 C 8,0 C 0,0 UV-I 0,0 C 60 % 91 % 0 % 986,9 hPa 0,0 l/m 4,8 km/h (1 Bft) 0 min 0,0 km/h (0 Bft)
26.02.2010 01:02 13,8 C 8,0 C 0,0 UV-I 0,0 C 60 % 91 % 0 % 986,9 hPa 0,0 l/m 5,2 km/h (1 Bft) 0 min 3,8 km/h (1 Bft)
26.02.2010 01:04 13,8 C 8,0 C 0,0 UV-I 0,0 C 60 % 92 % 0 % 986,9 hPa 0,0 l/m 6,0 km/h (2 Bft) 0 min 9,6 km/h (2 Bft)
26.02.2010 01:06 13,8 C 8,0 C 0,0 UV-I 0,0 C 60 % 92 % 0 % 986,9 hPa 0,0 l/m 6,4 km/h (2 Bft) 0 min 13,0 km/h (3 Bft)
26.02.2010 01:12 13,8 C 8,0 C 0,0 UV-I 0,0 C 60 % 92 % 0 % 986,6 hPa 0,0 l/m 9,2 km/h (2 Bft) 0 min 14,2 km/h (3 Bft)
26.02.2010 01:14 13,8 C 8,1 C 0,0 UV-I 0,0 C 60 % 92 % 0 % 986,6 hPa 0,0 l/m 10,0 km/h (2 Bft) 0 min 5,8 km/h (2 Bft)
26.02.2010 01:16 13,8 C 8,1 C 0,0 UV-I 0,0 C 60 % 92 % 0 % 986,6 hPa 0,0 l/m 10,0 km/h (2 Bft) 0 min 9,1 km/h (2 Bft)
26.02.2010 01:18 13,8 C 8,1 C 0,0 UV-I 0,0 C 60 % 92 % 0 % 986,6 hPa 0,0 l/m 9,6 km/h (2 Bft) 0 min 6,0 km/h (2 Bft)
26.02.2010 01:20 13,8 C 8,1 C 0,0 UV-I 0,0 C 60 % 92 % 0 % 986,6 hPa 0,0 l/m 10,0 km/h (2 Bft) 0 min 10,8 km/h (2 Bft)
26.02.2010 01:22 13,8 C 8,1 C 0,0 UV-I 0,0 C 60 % 92 % 0 % 986,6 hPa 0,0 l/m 9,6 km/h (2 Bft) 0 min 6,0 km/h (2 Bft)
26.02.2010 01:24 13,8 C 8,1 C 0,0 UV-I 0,0 C 60 % 92 % 0 % 986,6 hPa 0,0 l/m 9,2 km/h (2 Bft) 0 min 6,0 km/h (2 Bft)
26.02.2010 01:26 13,8 C 8,1 C 0,0 UV-I 0,0 C 60 % 92 % 0 % 986,6 hPa 0,0 l/m 9,2 km/h (2 Bft) 0 min 7,2 km/h (2 Bft)
26.02.2010 01:28 13,8 C 8,1 C 0,0 UV-I 0,0 C 60 % 92 % 0 % 986,6 hPa 0,0 l/m 9,6 km/h (2 Bft) 0 min 9,6 km/h (2 Bft)
26.02.2010 01:30 13,8 C 8,1 C 0,0 UV-I 0,0 C 60 % 92 % 0 % 986,6 hPa 0,0 l/m 10,0 km/h (2 Bft) 0 min 7,7 km/h (2 Bft)
26.02.2010 01:32 13,8 C 8,2 C 0,0 UV-I 0,0 C 60 % 92 % 0 % 986,5 hPa 0,0 l/m 10,8 km/h (2 Bft) 0 min 14,9 km/h (3 Bft)
26.02.2010 01:34 13,8 C 8,2 C 0,0 UV-I 0,0 C 60 % 92 % 0 % 986,5 hPa 0,0 l/m 10,8 km/h (2 Bft) 0 min 5,3 km/h (1 Bft)
26.02.2010 01:36 13,8 C 8,2 C 0,0 UV-I 0,0 C 60 % 92 % 0 % 986,5 hPa 0,0 l/m 11,6 km/h (2 Bft) 0 min 13,5 km/h (3 Bft)
26.02.2010 01:38 13,8 C 8,3 C 0,0 UV-I 0,0 C 60 % 92 % 0 % 986,5 hPa 0,0 l/m 10,8 km/h (2 Bft) 0 min 7,9 km/h (2 Bft)
26.02.2010 01:44 13,8 C 8,3 C 0,0 UV-I 0,0 C 60 % 92 % 0 % 986,5 hPa 0,0 l/m 10,4 km/h (2 Bft) 0 min 12,3 km/h (3 Bft)
26.02.2010 01:46 13,8 C 8,3 C 0,0 UV-I 0,0 C 60 % 92 % 0 % 986,5 hPa 0,0 l/m 10,8 km/h (2 Bft) 0 min 3,8 km/h (1 Bft)
26.02.2010 01:48 13,8 C 8,3 C 0,0 UV-I 0,0 C 60 % 92 % 0 % 986,5 hPa 0,0 l/m 9,6 km/h (2 Bft) 0 min 4,6 km/h (1 Bft)
26.02.2010 01:50 13,8 C 8,3 C 0,0 UV-I 0,0 C 61 % 92 % 0 % 986,5 hPa 0,0 l/m 10,0 km/h (2 Bft) 0 min 11,3 km/h (2 Bft)
26.02.2010 01:52 13,8 C 8,3 C 0,0 UV-I 0,0 C 60 % 92 % 0 % 986,1 hPa 0,0 l/m 9,6 km/h (2 Bft) 0 min 15,9 km/h (3 Bft)
26.02.2010 01:54 13,8 C 8,2 C 0,0 UV-I 0,0 C 61 % 92 % 0 % 986,1 hPa 0,0 l/m 10,0 km/h (2 Bft) 0 min 7,5 km/h (2 Bft)
26.02.2010 01:56 13,8 C 8,2 C 0,0 UV-I 0,0 C 61 % 92 % 0 % 986,1 hPa 0,0 l/m 8,4 km/h (2 Bft) 0 min 5,1 km/h (1 Bft)
26.02.2010 02:00 13,8 C 8,2 C 0,0 UV-I 0,0 C 61 % 92 % 0 % 986,1 hPa 0,0 l/m 9,6 km/h (2 Bft) 0 min 8,2 km/h (2 Bft)
26.02.2010 02:04 13,8 C 8,2 C 0,0 UV-I 0,0 C 61 % 92 % 0 % 986,1 hPa 0,0 l/m 9,6 km/h (2 Bft) 0 min 11,3 km/h (2 Bft)
26.02.2010 02:06 13,8 C 8,2 C 0,0 UV-I 0,0 C 61 % 92 % 0 % 986,1 hPa 0,0 l/m 9,6 km/h (2 Bft) 0 min 6,3 km/h (2 Bft)
26.02.2010 02:10 13,8 C 8,2 C 0,0 UV-I 0,0 C 61 % 92 % 0 % 986,1 hPa 0,0 l/m 9,2 km/h (2 Bft) 0 min 5,3 km/h (1 Bft)
26.02.2010 02:12 13,8 C 8,1 C 0,0 UV-I 0,0 C 61 % 92 % 0 % 986,1 hPa 0,0 l/m 8,8 km/h (2 Bft) 0 min 6,7 km/h (2 Bft)
26.02.2010 02:14 13,8 C 8,1 C 0,0 UV-I 0,0 C 61 % 92 % 0 % 986,1 hPa 0,0 l/m 9,2 km/h (2 Bft) 0 min 9,9 km/h (2 Bft)
26.02.2010 02:18 13,8 C 8,2 C 0,0 UV-I 0,0 C 61 % 92 % 0 % 986,1 hPa 0,0 l/m 9,6 km/h (2 Bft) 0 min 8,7 km/h (2 Bft)
26.02.2010 02:22 13,8 C 8,2 C 0,0 UV-I 0,0 C 61 % 92 % 0 % 986,1 hPa 0,0 l/m 9,2 km/h (2 Bft) 0 min 8,7 km/h (2 Bft)
26.02.2010 02:28 13,8 C 8,3 C 0,0 UV-I 0,0 C 61 % 92 % 0 % 986,1 hPa 0,0 l/m 8,4 km/h (2 Bft) 0 min 7,5 km/h (2 Bft)
26.02.2010 02:38 13,8 C 8,2 C 0,0 UV-I 0,0 C 61 % 92 % 0 % 985,9 hPa 0,0 l/m 8,4 km/h (2 Bft) 0 min 6,3 km/h (2 Bft)
26.02.2010 02:40 13,8 C 8,2 C 0,0 UV-I 0,0 C 61 % 92 % 0 % 985,9 hPa 0,0 l/m 8,4 km/h (2 Bft) 0 min 5,1 km/h (1 Bft)
26.02.2010 02:46 13,8 C 8,2 C 0,0 UV-I 0,0 C 61 % 92 % 0 % 985,9 hPa 0,0 l/m 8,4 km/h (2 Bft) 0 min 6,7 km/h (2 Bft)
26.02.2010 02:54 13,8 C 8,3 C 0,0 UV-I 0,0 C 61 % 92 % 0 % 985,7 hPa 0,0 l/m 6,4 km/h (2 Bft) 0 min 7,9 km/h (2 Bft)
26.02.2010 02:56 13,8 C 8,2 C 0,0 UV-I 0,0 C 61 % 92 % 0 % 985,7 hPa 0,0 l/m 6,4 km/h (2 Bft) 0 min 6,7 km/h (2 Bft)
26.02.2010 03:08 13,8 C 8,3 C 0,0 UV-I 0,0 C 61 % 93 % 0 % 985,7 hPa 0,0 l/m 9,6 km/h (2 Bft) 0 min 9,9 km/h (2 Bft)
26.02.2010 03:09 13,8 C 8,3 C 0,0 UV-I 0,0 C 61 % 92 % 0 % 985,7 hPa 0,0 l/m 9,6 km/h (2 Bft) 0 min 5,5 km/h (1 Bft)
26.02.2010 03:14 13,6 C 8,3 C 0,0 UV-I 0,0 C 61 % 92 % 0 % 985,4 hPa 0,0 l/m 9,2 km/h (2 Bft) 0 min 6,5 km/h (2 Bft)
26.02.2010 03:15 13,8 C 8,3 C 0,0 UV-I 0,0 C 61 % 93 % 0 % 985,4 hPa 0,0 l/m 10,0 km/h (2 Bft) 0 min 5,5 km/h (1 Bft)
26.02.2010 03:16 13,8 C 8,3 C 0,0 UV-I 0,0 C 61 % 93 % 0 % 985,4 hPa 0,0 l/m 10,0 km/h (2 Bft) 0 min 5,5 km/h (1 Bft)
26.02.2010 03:18 13,8 C 8,3 C 0,0 UV-I 0,0 C 61 % 93 % 0 % 985,4 hPa 0,0 l/m 10,0 km/h (2 Bft) 0 min 7,0 km/h (2 Bft)
26.02.2010 03:26 13,8 C 8,3 C 0,0 UV-I 0,0 C 61 % 93 % 0 % 985,4 hPa 0,0 l/m 8,4 km/h (2 Bft) 0 min 6,7 km/h (2 Bft)
26.02.2010 03:28 13,8 C 8,2 C 0,0 UV-I 0,0 C 61 % 92 % 0 % 985,4 hPa 0,0 l/m 8,4 km/h (2 Bft) 0 min 8,9 km/h (2 Bft)
26.02.2010 03:32 13,8 C 8,2 C 0,0 UV-I 0,0 C 61 % 92 % 0 % 985,2 hPa 0,0 l/m 8,8 km/h (2 Bft) 0 min 8,9 km/h (2 Bft)
26.02.2010 03:34 13,8 C 8,3 C 0,0 UV-I 0,0 C 61 % 92 % 0 % 985,2 hPa 0,0 l/m 8,8 km/h (2 Bft) 0 min 7,7 km/h (2 Bft)
26.02.2010 03:38 13,8 C 8,3 C 0,0 UV-I 0,0 C 61 % 92 % 0 % 985,2 hPa 0,0 l/m 9,2 km/h (2 Bft) 0 min 7,0 km/h (2 Bft)
26.02.2010 03:40 13,8 C 8,2 C 0,0 UV-I 0,0 C 61 % 92 % 0 % 985,2 hPa 0,0 l/m 8,8 km/h (2 Bft) 0 min 9,6 km/h (2 Bft)
26.02.2010 03:42 13,8 C 8,3 C 0,0 UV-I 0,0 C 61 % 92 % 0 % 985,2 hPa 0,0 l/m 8,8 km/h (2 Bft) 0 min 4,8 km/h (1 Bft)
26.02.2010 03:46 13,8 C 8,3 C 0,0 UV-I 0,0 C 61 % 92 % 0 % 985,2 hPa 0,0 l/m 8,4 km/h (2 Bft) 0 min 5,1 km/h (1 Bft)
26.02.2010 03:48 13,8 C 8,3 C 0,0 UV-I 0,0 C 61 % 92 % 0 % 985,2 hPa 0,0 l/m 9,2 km/h (2 Bft) 0 min 10,1 km/h (2 Bft)
26.02.2010 03:52 13,8 C 8,3 C 0,0 UV-I 0,0 C 61 % 92 % 0 % 984,9 hPa 0,0 l/m 8,4 km/h (2 Bft) 0 min 7,7 km/h (2 Bft)
26.02.2010 03:54 13,8 C 8,3 C 0,0 UV-I 0,0 C 61 % 92 % 0 % 984,9 hPa 0,0 l/m 7,6 km/h (2 Bft) 0 min 3,1 km/h (1 Bft)
26.02.2010 03:58 13,8 C 8,3 C 0,0 UV-I 0,0 C 61 % 92 % 0 % 984,9 hPa 0,0 l/m 6,0 km/h (2 Bft) 0 min 4,6 km/h (1 Bft)
26.02.2010 04:04 13,8 C 8,3 C 0,0 UV-I 0,0 C 61 % 92 % 0 % 984,9 hPa 0,0 l/m 6,0 km/h (2 Bft) 0 min 8,7 km/h (2 Bft)
26.02.2010 04:06 13,8 C 8,3 C 0,0 UV-I 0,0 C 61 % 92 % 0 % 984,9 hPa 0,0 l/m 6,4 km/h (2 Bft) 0 min 4,6 km/h (1 Bft)
26.02.2010 04:10 13,8 C 8,3 C 0,0 UV-I 0,0 C 61 % 92 % 0 % 984,9 hPa 0,0 l/m 7,6 km/h (2 Bft) 0 min 9,6 km/h (2 Bft)
26.02.2010 04:14 13,8 C 8,3 C 0,0 UV-I 0,0 C 61 % 92 % 0 % 984,9 hPa 0,0 l/m 5,6 km/h (1 Bft) 0 min 6,0 km/h (2 Bft)
26.02.2010 04:19 13,8 C 8,3 C 0,0 UV-I 0,0 C 61 % 92 % 0 % 984,9 hPa 0,0 l/m 4,8 km/h (1 Bft) 0 min 3,4 km/h (1 Bft)
26.02.2010 04:20 13,8 C 8,3 C 0,0 UV-I 0,0 C 61 % 92 % 0 % 984,9 hPa 0,0 l/m 4,8 km/h (1 Bft) 0 min 3,4 km/h (1 Bft)
26.02.2010 04:22 13,8 C 8,3 C 0,0 UV-I 0,0 C 61 % 92 % 0 % 984,9 hPa 0,0 l/m 5,2 km/h (1 Bft) 0 min 6,7 km/h (2 Bft)
26.02.2010 04:24 13,8 C 8,3 C 0,0 UV-I 0,0 C 61 % 92 % 0 % 984,9 hPa 0,0 l/m 5,2 km/h (1 Bft) 0 min 0,0 km/h (0 Bft)
26.02.2010 04:26 13,8 C 8,3 C 0,0 UV-I 0,0 C 61 % 92 % 0 % 984,9 hPa 0,0 l/m 4,8 km/h (1 Bft) 0 min 3,8 km/h (1 Bft)
26.02.2010 04:28 13,8 C 8,3 C 0,0 UV-I 0,0 C 61 % 92 % 0 % 984,9 hPa 0,0 l/m 4,0 km/h (1 Bft) 0 min 0,0 km/h (0 Bft)
26.02.2010 04:30 13,8 C 8,3 C 0,0 UV-I 0,0 C 61 % 92 % 0 % 984,9 hPa 0,0 l/m 3,6 km/h (1 Bft) 0 min 5,3 km/h (1 Bft)
26.02.2010 04:32 13,8 C 8,3 C 0,0 UV-I 0,0 C 61 % 92 % 0 % 984,7 hPa 0,0 l/m 2,8 km/h (1 Bft) 0 min 0,0 km/h (0 Bft)
26.02.2010 04:34 13,8 C 8,3 C 0,0 UV-I 0,0 C 61 % 92 % 0 % 984,7 hPa 0,0 l/m 3,2 km/h (1 Bft) 0 min 4,3 km/h (1 Bft)
26.02.2010 04:36 13,8 C 8,3 C 0,0 UV-I 0,0 C 61 % 92 % 0 % 984,7 hPa 0,0 l/m 3,2 km/h (1 Bft) 0 min 2,6 km/h (1 Bft)
26.02.2010 04:38 13,8 C 8,4 C 0,0 UV-I 0,0 C 61 % 92 % 0 % 984,7 hPa 0,0 l/m 4,0 km/h (1 Bft) 0 min 4,3 km/h (1 Bft)
26.02.2010 04:40 13,8 C 8,4 C 0,0 UV-I 0,0 C 61 % 92 % 0 % 984,7 hPa 0,0 l/m 4,4 km/h (1 Bft) 0 min 4,6 km/h (1 Bft)
26.02.2010 04:42 13,8 C 8,4 C 0,0 UV-I 0,0 C 61 % 92 % 0 % 984,7 hPa 0,0 l/m 4,8 km/h (1 Bft) 0 min 5,3 km/h (1 Bft)
26.02.2010 04:44 13,8 C 8,4 C 0,0 UV-I 0,0 C 61 % 92 % 0 % 984,7 hPa 0,0 l/m 5,2 km/h (1 Bft) 0 min 6,5 km/h (2 Bft)
26.02.2010 04:46 13,8 C 8,4 C 0,0 UV-I 0,0 C 61 % 92 % 0 % 984,7 hPa 0,0 l/m 5,6 km/h (1 Bft) 0 min 3,8 km/h (1 Bft)
26.02.2010 04:48 13,8 C 8,4 C 0,0 UV-I 0,0 C 61 % 92 % 0 % 984,7 hPa 0,0 l/m 6,4 km/h (2 Bft) 0 min 6,0 km/h (2 Bft)
26.02.2010 04:50 13,8 C 8,4 C 0,0 UV-I 0,0 C 61 % 92 % 0 % 984,7 hPa 0,0 l/m 7,2 km/h (2 Bft) 0 min 8,4 km/h (2 Bft)
26.02.2010 04:52 13,8 C 8,5 C 0,0 UV-I 0,0 C 61 % 92 % 0 % 984,6 hPa 0,0 l/m 7,2 km/h (2 Bft) 0 min 10,6 km/h (2 Bft)
26.02.2010 04:54 13,8 C 8,5 C 0,0 UV-I 0,0 C 61 % 92 % 0 % 984,6 hPa 0,0 l/m 8,4 km/h (2 Bft) 0 min 7,5 km/h (2 Bft)
26.02.2010 04:56 13,8 C 8,4 C 0,0 UV-I 0,0 C 61 % 92 % 0 % 984,6 hPa 0,0 l/m 10,0 km/h (2 Bft) 0 min 14,2 km/h (3 Bft)
26.02.2010 04:58 13,8 C 8,5 C 0,0 UV-I 0,0 C 61 % 92 % 0 % 984,6 hPa 0,0 l/m 10,8 km/h (2 Bft) 0 min 12,8 km/h (3 Bft)
26.02.2010 05:00 13,8 C 8,5 C 0,0 UV-I 0,0 C 61 % 92 % 0 % 984,6 hPa 0,0 l/m 12,0 km/h (2 Bft) 0 min 5,8 km/h (2 Bft)
26.02.2010 05:02 13,8 C 8,5 C 0,0 UV-I 0,0 C 61 % 92 % 0 % 984,6 hPa 0,0 l/m 12,4 km/h (3 Bft) 0 min 6,3 km/h (2 Bft)
26.02.2010 05:04 13,8 C 8,7 C 0,0 UV-I 0,0 C 61 % 92 % 0 % 984,6 hPa 0,0 l/m 13,3 km/h (3 Bft) 0 min 8,7 km/h (2 Bft)
26.02.2010 05:06 13,8 C 8,6 C 0,0 UV-I 0,0 C 61 % 92 % 0 % 984,6 hPa 0,0 l/m 12,8 km/h (3 Bft) 0 min 14,7 km/h (3 Bft)
26.02.2010 05:08 13,8 C 8,7 C 0,0 UV-I 0,0 C 61 % 92 % 0 % 984,6 hPa 0,0 l/m 12,4 km/h (3 Bft) 0 min 7,7 km/h (2 Bft)
26.02.2010 05:10 13,8 C 8,7 C 0,0 UV-I 0,0 C 61 % 92 % 0 % 984,6 hPa 0,0 l/m 12,4 km/h (3 Bft) 0 min 13,5 km/h (3 Bft)
26.02.2010 05:12 13,8 C 8,8 C 0,0 UV-I 0,1 C 61 % 92 % 0 % 984,7 hPa 0,0 l/m 11,6 km/h (2 Bft) 0 min 10,8 km/h (2 Bft)
26.02.2010 05:14 13,8 C 8,8 C 0,0 UV-I 0,1 C 61 % 91 % 0 % 984,7 hPa 0,0 l/m 12,0 km/h (2 Bft) 0 min 6,5 km/h (2 Bft)
26.02.2010 05:16 13,8 C 8,8 C 0,0 UV-I 0,1 C 61 % 91 % 0 % 984,7 hPa 0,0 l/m 11,6 km/h (2 Bft) 0 min 10,3 km/h (2 Bft)
26.02.2010 05:18 13,8 C 8,8 C 0,0 UV-I 0,3 C 61 % 91 % 0 % 984,7 hPa 0,0 l/m 11,2 km/h (2 Bft) 0 min 7,0 km/h (2 Bft)
26.02.2010 05:20 13,8 C 8,8 C 0,0 UV-I 0,4 C 61 % 91 % 0 % 984,7 hPa 0,0 l/m 10,8 km/h (2 Bft) 0 min 12,3 km/h (3 Bft)
26.02.2010 05:22 13,8 C 8,8 C 0,0 UV-I 0,4 C 61 % 91 % 0 % 984,7 hPa 0,0 l/m 10,8 km/h (2 Bft) 0 min 9,9 km/h (2 Bft)
26.02.2010 05:24 13,8 C 8,9 C 0,0 UV-I 0,3 C 61 % 91 % 0 % 984,7 hPa 0,0 l/m 10,4 km/h (2 Bft) 0 min 7,7 km/h (2 Bft)
26.02.2010 05:26 13,8 C 8,9 C 0,0 UV-I 0,3 C 61 % 91 % 0 % 984,7 hPa 0,0 l/m 10,4 km/h (2 Bft) 0 min 9,1 km/h (2 Bft)
26.02.2010 05:28 13,8 C 8,9 C 0,0 UV-I 0,3 C 61 % 91 % 0 % 984,7 hPa 0,0 l/m 10,4 km/h (2 Bft) 0 min 6,3 km/h (2 Bft)
26.02.2010 05:30 13,8 C 8,9 C 0,0 UV-I 0,3 C 61 % 90 % 0 % 984,7 hPa 0,0 l/m 10,8 km/h (2 Bft) 0 min 9,4 km/h (2 Bft)
26.02.2010 05:32 13,8 C 8,9 C 0,0 UV-I 0,4 C 61 % 90 % 0 % 984,6 hPa 0,0 l/m 10,4 km/h (2 Bft) 0 min 12,0 km/h (2 Bft)
26.02.2010 05:34 13,8 C 8,9 C 0,0 UV-I 0,4 C 61 % 90 % 0 % 984,6 hPa 0,0 l/m 10,4 km/h (2 Bft) 0 min 9,1 km/h (2 Bft)
26.02.2010 05:36 13,8 C 9,0 C 0,0 UV-I 0,4 C 61 % 90 % 0 % 984,6 hPa 0,0 l/m 9,6 km/h (2 Bft) 0 min 3,6 km/h (1 Bft)
26.02.2010 05:38 13,8 C 8,9 C 0,0 UV-I 0,5 C 61 % 90 % 0 % 984,6 hPa 0,0 l/m 8,4 km/h (2 Bft) 0 min 5,5 km/h (1 Bft)
26.02.2010 05:40 13,8 C 9,0 C 0,0 UV-I 0,4 C 61 % 90 % 0 % 984,6 hPa 0,0 l/m 8,4 km/h (2 Bft) 0 min 3,8 km/h (1 Bft)
26.02.2010 05:42 13,9 C 9,1 C 0,0 UV-I 0,3 C 61 % 90 % 0 % 984,6 hPa 0,0 l/m 8,4 km/h (2 Bft) 0 min 7,2 km/h (2 Bft)
26.02.2010 05:44 13,8 C 9,1 C 0,0 UV-I 0,4 C 61 % 90 % 0 % 984,6 hPa 0,0 l/m 6,4 km/h (2 Bft) 0 min 0,0 km/h (0 Bft)
26.02.2010 05:46 13,8 C 9,1 C 0,0 UV-I 0,4 C 61 % 90 % 0 % 984,6 hPa 0,0 l/m 6,4 km/h (2 Bft) 0 min 5,3 km/h (1 Bft)
26.02.2010 05:48 13,8 C 9,1 C 0,0 UV-I 0,4 C 61 % 90 % 0 % 984,6 hPa 0,0 l/m 7,2 km/h (2 Bft) 0 min 5,1 km/h (1 Bft)
26.02.2010 05:50 13,8 C 9,0 C 0,0 UV-I 0,5 C 61 % 89 % 0 % 984,6 hPa 0,0 l/m 6,0 km/h (2 Bft) 0 min 3,6 km/h (1 Bft)
26.02.2010 05:52 13,8 C 9,0 C 0,0 UV-I 0,5 C 61 % 89 % 0 % 984,4 hPa 0,0 l/m 6,4 km/h (2 Bft) 0 min 5,8 km/h (2 Bft)
26.02.2010 05:54 13,8 C 9,0 C 0,0 UV-I 0,5 C 61 % 89 % 0 % 984,4 hPa 0,0 l/m 6,4 km/h (2 Bft) 0 min 7,0 km/h (2 Bft)
26.02.2010 05:56 13,8 C 9,1 C 0,0 UV-I 0,4 C 61 % 89 % 0 % 984,4 hPa 0,0 l/m 7,6 km/h (2 Bft) 0 min 9,9 km/h (2 Bft)
26.02.2010 05:58 13,8 C 9,1 C 0,0 UV-I 0,4 C 61 % 89 % 0 % 984,4 hPa 0,0 l/m 8,0 km/h (2 Bft) 0 min 9,1 km/h (2 Bft)
26.02.2010 06:00 13,8 C 9,2 C 0,0 UV-I 0,3 C 61 % 89 % 0 % 984,4 hPa 0,0 l/m 8,4 km/h (2 Bft) 0 min 6,7 km/h (2 Bft)
26.02.2010 06:02 13,8 C 9,2 C 0,0 UV-I 0,4 C 61 % 88 % 0 % 984,4 hPa 0,0 l/m 9,2 km/h (2 Bft) 0 min 5,5 km/h (1 Bft)
26.02.2010 06:04 13,8 C 9,2 C 0,0 UV-I 0,4 C 61 % 88 % 0 % 984,4 hPa 0,0 l/m 9,2 km/h (2 Bft) 0 min 5,5 km/h (1 Bft)
26.02.2010 06:06 13,8 C 9,3 C 0,0 UV-I 0,3 C 61 % 88 % 0 % 984,4 hPa 0,0 l/m 9,6 km/h (2 Bft) 0 min 4,8 km/h (1 Bft)
26.02.2010 06:08 13,8 C 9,3 C 0,0 UV-I 0,4 C 61 % 88 % 0 % 984,4 hPa 0,0 l/m 9,6 km/h (2 Bft) 0 min 6,3 km/h (2 Bft)
26.02.2010 06:10 13,8 C 9,2 C 0,0 UV-I 0,5 C 61 % 88 % 0 % 984,4 hPa 0,0 l/m 8,8 km/h (2 Bft) 0 min 3,4 km/h (1 Bft)
26.02.2010 06:12 13,8 C 9,2 C 0,0 UV-I 0,5 C 61 % 88 % 0 % 984,6 hPa 0,0 l/m 8,0 km/h (2 Bft) 0 min 6,3 km/h (2 Bft)
26.02.2010 06:14 13,9 C 9,3 C 0,0 UV-I 0,4 C 61 % 87 % 0 % 984,6 hPa 0,0 l/m 8,4 km/h (2 Bft) 0 min 7,2 km/h (2 Bft)
26.02.2010 06:16 13,9 C 9,2 C 0,0 UV-I 0,5 C 61 % 87 % 0 % 984,6 hPa 0,0 l/m 8,4 km/h (2 Bft) 0 min 7,5 km/h (2 Bft)
26.02.2010 06:18 13,9 C 9,2 C 0,0 UV-I 0,5 C 61 % 87 % 0 % 984,6 hPa 0,0 l/m 8,4 km/h (2 Bft) 0 min 8,7 km/h (2 Bft)
26.02.2010 06:20 13,8 C 9,3 C 0,0 UV-I 0,4 C 61 % 87 % 0 % 984,6 hPa 0,0 l/m 8,4 km/h (2 Bft) 0 min 4,8 km/h (1 Bft)
26.02.2010 06:22 13,9 C 9,3 C 0,0 UV-I 0,4 C 60 % 87 % 0 % 984,6 hPa 0,0 l/m 9,6 km/h (2 Bft) 0 min 6,3 km/h (2 Bft)
26.02.2010 06:24 13,9 C 9,3 C 0,0 UV-I 0,4 C 60 % 87 % 0 % 984,6 hPa 0,0 l/m 8,4 km/h (2 Bft) 0 min 0,0 km/h (0 Bft)
26.02.2010 06:26 13,9 C 9,3 C 0,0 UV-I 0,4 C 60 % 87 % 0 % 984,6 hPa 0,0 l/m 7,2 km/h (2 Bft) 0 min 8,4 km/h (2 Bft)
26.02.2010 06:28 13,9 C 9,3 C 0,0 UV-I 0,4 C 60 % 87 % 0 % 984,6 hPa 0,0 l/m 6,4 km/h (2 Bft) 0 min 4,3 km/h (1 Bft)
26.02.2010 06:30 13,9 C 9,3 C 0,0 UV-I 0,3 C 60 % 87 % 0 % 984,6 hPa 0,0 l/m 4,8 km/h (1 Bft) 0 min 4,1 km/h (1 Bft)
26.02.2010 06:32 13,9 C 9,3 C 0,0 UV-I 0,3 C 60 % 87 % 0 % 984,8 hPa 0,0 l/m 4,4 km/h (1 Bft) 0 min 4,3 km/h (1 Bft)
26.02.2010 06:34 13,9 C 9,3 C 0,0 UV-I 0,3 C 60 % 87 % 0 % 984,8 hPa 0,0 l/m 3,2 km/h (1 Bft) 0 min 3,6 km/h (1 Bft)
26.02.2010 06:36 13,9 C 9,3 C 0,0 UV-I 0,2 C 60 % 87 % 0 % 984,8 hPa 0,0 l/m 4,0 km/h (1 Bft) 0 min 4,3 km/h (1 Bft)
26.02.2010 06:38 13,9 C 9,3 C 0,0 UV-I 0,2 C 60 % 87 % 0 % 984,8 hPa 0,0 l/m 3,2 km/h (1 Bft) 0 min 2,4 km/h (1 Bft)
26.02.2010 06:40 13,9 C 9,3 C 0,0 UV-I 0,2 C 60 % 87 % 0 % 984,8 hPa 0,0 l/m 2,8 km/h (1 Bft) 0 min 0,0 km/h (0 Bft)
26.02.2010 06:42 13,9 C 9,3 C 0,0 UV-I 0,2 C 60 % 87 % 0 % 984,8 hPa 0,0 l/m 2,8 km/h (1 Bft) 0 min 3,4 km/h (1 Bft)
26.02.2010 06:44 13,9 C 9,3 C 0,0 UV-I 0,2 C 60 % 87 % 0 % 984,8 hPa 0,0 l/m 3,6 km/h (1 Bft) 0 min 5,8 km/h (2 Bft)
26.02.2010 06:46 13,9 C 9,3 C 0,0 UV-I 0,2 C 60 % 87 % 0 % 984,8 hPa 0,0 l/m 4,0 km/h (1 Bft) 0 min 5,3 km/h (1 Bft)
26.02.2010 06:48 13,9 C 9,3 C 0,0 UV-I 0,2 C 60 % 87 % 0 % 984,8 hPa 0,0 l/m 4,8 km/h (1 Bft) 0 min 6,3 km/h (2 Bft)
26.02.2010 06:50 13,9 C 9,3 C 0,0 UV-I 0,2 C 60 % 87 % 0 % 984,8 hPa 0,0 l/m 6,8 km/h (2 Bft) 0 min 3,6 km/h (1 Bft)
26.02.2010 06:52 13,9 C 9,4 C 0,0 UV-I 0,1 C 60 % 87 % 0 % 984,6 hPa 0,0 l/m 7,6 km/h (2 Bft) 0 min 2,6 km/h (1 Bft)
26.02.2010 06:54 13,9 C 9,3 C 0,0 UV-I 0,2 C 60 % 87 % 0 % 984,6 hPa 0,0 l/m 7,6 km/h (2 Bft) 0 min 4,1 km/h (1 Bft)
26.02.2010 06:56 13,9 C 9,4 C 0,0 UV-I 0,1 C 60 % 87 % 0 % 984,6 hPa 0,0 l/m 7,6 km/h (2 Bft) 0 min 11,3 km/h (2 Bft)
26.02.2010 06:58 13,9 C 9,4 C 0,0 UV-I 0,1 C 60 % 87 % 0 % 984,6 hPa 0,0 l/m 8,0 km/h (2 Bft) 0 min 9,6 km/h (2 Bft)
26.02.2010 07:00 13,9 C 9,5 C 0,0 UV-I 0,0 C 60 % 87 % 0 % 984,6 hPa 0,0 l/m 8,0 km/h (2 Bft) 0 min 6,3 km/h (2 Bft)
26.02.2010 07:02 13,9 C 9,4 C 0,0 UV-I 0,0 C 60 % 87 % 0 % 984,6 hPa 0,0 l/m 7,2 km/h (2 Bft) 0 min 4,8 km/h (1 Bft)
26.02.2010 07:04 13,9 C 9,4 C 0,0 UV-I 0,0 C 60 % 87 % 0 % 984,6 hPa 0,0 l/m 7,2 km/h (2 Bft) 0 min 4,1 km/h (1 Bft)
26.02.2010 07:06 13,9 C 9,5 C 0,0 UV-I 0,0 C 60 % 87 % 0 % 984,6 hPa 0,0 l/m 6,8 km/h (2 Bft) 0 min 3,8 km/h (1 Bft)
26.02.2010 07:08 13,9 C 9,3 C 0,0 UV-I 0,1 C 60 % 87 % 0 % 984,6 hPa 0,0 l/m 6,4 km/h (2 Bft) 0 min 5,5 km/h (1 Bft)
26.02.2010 07:10 13,9 C 9,3 C 0,0 UV-I 0,1 C 60 % 87 % 0 % 984,6 hPa 0,0 l/m 5,2 km/h (1 Bft) 0 min 4,1 km/h (1 Bft)
26.02.2010 07:12 13,9 C 9,3 C 0,0 UV-I 0,1 C 60 % 87 % 0 % 984,6 hPa 0,0 l/m 6,4 km/h (2 Bft) 0 min 7,5 km/h (2 Bft)
26.02.2010 07:14 13,9 C 9,3 C 0,0 UV-I 0,1 C 60 % 87 % 0 % 984,6 hPa 0,0 l/m 7,2 km/h (2 Bft) 0 min 9,1 km/h (2 Bft)
26.02.2010 07:16 13,9 C 9,4 C 0,0 UV-I 0,0 C 60 % 87 % 0 % 984,6 hPa 0,0 l/m 7,6 km/h (2 Bft) 0 min 4,1 km/h (1 Bft)
26.02.2010 07:18 13,9 C 9,4 C 0,0 UV-I 0,0 C 60 % 87 % 0 % 984,6 hPa 0,0 l/m 8,0 km/h (2 Bft) 0 min 6,5 km/h (2 Bft)
26.02.2010 07:20 13,9 C 9,4 C 0,0 UV-I 0,0 C 60 % 87 % 0 % 984,6 hPa 0,0 l/m 9,2 km/h (2 Bft) 0 min 5,3 km/h (1 Bft)
26.02.2010 07:22 13,9 C 9,3 C 0,0 UV-I 0,0 C 60 % 87 % 0 % 984,6 hPa 0,0 l/m 9,6 km/h (2 Bft) 0 min 5,8 km/h (2 Bft)
26.02.2010 07:24 13,9 C 9,4 C 0,0 UV-I 0,0 C 60 % 86 % 0 % 984,6 hPa 0,0 l/m 8,8 km/h (2 Bft) 0 min 6,7 km/h (2 Bft)
26.02.2010 07:26 13,9 C 9,5 C 0,0 UV-I 0,0 C 60 % 86 % 0 % 984,6 hPa 0,0 l/m 8,4 km/h (2 Bft) 0 min 4,6 km/h (1 Bft)
26.02.2010 07:28 13,9 C 9,5 C 0,0 UV-I 0,0 C 60 % 86 % 0 % 984,6 hPa 0,0 l/m 9,6 km/h (2 Bft) 0 min 9,1 km/h (2 Bft)
26.02.2010 07:30 13,8 C 9,5 C 0,0 UV-I 0,0 C 60 % 86 % 0 % 984,6 hPa 0,0 l/m 8,8 km/h (2 Bft) 0 min 6,3 km/h (2 Bft)
26.02.2010 07:32 13,9 C 9,5 C 0,0 UV-I 0,0 C 60 % 86 % 0 % 984,8 hPa 0,0 l/m 8,8 km/h (2 Bft) 0 min 12,0 km/h (2 Bft)
26.02.2010 07:34 13,9 C 9,5 C 0,0 UV-I 0,0 C 60 % 86 % 0 % 984,8 hPa 0,0 l/m 9,6 km/h (2 Bft) 0 min 4,1 km/h (1 Bft)
26.02.2010 07:36 13,9 C 9,5 C 0,0 UV-I 0,0 C 60 % 86 % 0 % 984,8 hPa 0,0 l/m 8,8 km/h (2 Bft) 0 min 5,8 km/h (2 Bft)
26.02.2010 07:38 13,9 C 9,5 C 0,0 UV-I 0,0 C 60 % 86 % 0 % 984,8 hPa 0,0 l/m 9,2 km/h (2 Bft) 0 min 4,6 km/h (1 Bft)
26.02.2010 07:40 13,9 C 9,5 C 0,0 UV-I 0,0 C 60 % 86 % 0 % 984,8 hPa 0,0 l/m 8,0 km/h (2 Bft) 0 min 3,4 km/h (1 Bft)
26.02.2010 07:42 13,9 C 9,5 C 0,0 UV-I 0,0 C 60 % 86 % 0 % 984,8 hPa 0,0 l/m 9,2 km/h (2 Bft) 0 min 7,0 km/h (2 Bft)
26.02.2010 07:44 13,8 C 9,5 C 0,0 UV-I 0,0 C 60 % 86 % 0 % 984,8 hPa 0,0 l/m 8,0 km/h (2 Bft) 0 min 8,7 km/h (2 Bft)
26.02.2010 07:46 13,9 C 9,4 C 0,0 UV-I 0,1 C 60 % 86 % 3 % 984,8 hPa 0,0 l/m 8,4 km/h (2 Bft) 0 min 14,0 km/h (3 Bft)
26.02.2010 07:48 13,9 C 9,5 C 0,0 UV-I 0,1 C 60 % 86 % 3 % 984,8 hPa 0,0 l/m 8,4 km/h (2 Bft) 0 min 8,4 km/h (2 Bft)
26.02.2010 07:50 13,8 C 9,4 C 0,0 UV-I 0,2 C 60 % 86 % 6 % 984,8 hPa 0,0 l/m 8,8 km/h (2 Bft) 0 min 6,5 km/h (2 Bft)
26.02.2010 07:52 13,8 C 9,5 C 0,0 UV-I 0,1 C 60 % 86 % 3 % 984,8 hPa 0,0 l/m 8,8 km/h (2 Bft) 0 min 8,7 km/h (2 Bft)
26.02.2010 07:54 13,8 C 9,5 C 0,0 UV-I 0,1 C 60 % 86 % 3 % 984,8 hPa 0,0 l/m 8,8 km/h (2 Bft) 0 min 7,9 km/h (2 Bft)
26.02.2010 07:56 13,8 C 9,4 C 0,0 UV-I 0,3 C 60 % 86 % 9 % 984,8 hPa 0,0 l/m 10,0 km/h (2 Bft) 0 min 7,9 km/h (2 Bft)
26.02.2010 07:58 13,8 C 9,5 C 0,0 UV-I 0,2 C 60 % 86 % 6 % 984,8 hPa 0,0 l/m 10,0 km/h (2 Bft) 0 min 8,7 km/h (2 Bft)
26.02.2010 08:02 14,0 C 9,5 C 0,0 UV-I 0,2 C 60 % 86 % 6 % 984,8 hPa 0,0 l/m 10,8 km/h (2 Bft) 0 min 15,6 km/h (3 Bft)
26.02.2010 08:04 14,0 C 9,4 C 0,0 UV-I 0,2 C 60 % 85 % 6 % 984,8 hPa 0,0 l/m 11,2 km/h (2 Bft) 0 min 5,1 km/h (1 Bft)
26.02.2010 08:06 13,8 C 9,5 C 0,0 UV-I 0,1 C 60 % 85 % 3 % 984,8 hPa 0,0 l/m 11,2 km/h (2 Bft) 0 min 10,3 km/h (2 Bft)
26.02.2010 08:08 13,8 C 9,5 C 0,0 UV-I 0,1 C 60 % 85 % 3 % 984,8 hPa 0,0 l/m 11,6 km/h (2 Bft) 0 min 7,5 km/h (2 Bft)
26.02.2010 08:10 13,8 C 9,5 C 0,0 UV-I 0,1 C 60 % 85 % 3 % 984,8 hPa 0,0 l/m 11,6 km/h (2 Bft) 0 min 6,5 km/h (2 Bft)
26.02.2010 08:12 13,8 C 9,5 C 0,0 UV-I 0,1 C 60 % 85 % 3 % 984,8 hPa 0,0 l/m 11,6 km/h (2 Bft) 0 min 10,1 km/h (2 Bft)
26.02.2010 08:14 13,8 C 9,5 C 0,0 UV-I 0,0 C 60 % 85 % 0 % 984,8 hPa 0,0 l/m 12,0 km/h (2 Bft) 0 min 8,7 km/h (2 Bft)
26.02.2010 08:16 13,8 C 9,5 C 0,0 UV-I 0,0 C 60 % 85 % 0 % 984,8 hPa 0,0 l/m 12,0 km/h (2 Bft) 0 min 12,0 km/h (2 Bft)
26.02.2010 08:18 14,0 C 9,6 C 0,0 UV-I 0,0 C 60 % 85 % 0 % 984,8 hPa 0,0 l/m 12,4 km/h (3 Bft) 0 min 8,4 km/h (2 Bft)
26.02.2010 08:20 14,0 C 9,6 C 0,0 UV-I 0,0 C 60 % 85 % 0 % 984,8 hPa 0,0 l/m 12,4 km/h (3 Bft) 0 min 14,9 km/h (3 Bft)
26.02.2010 08:22 14,0 C 9,6 C 0,0 UV-I 0,0 C 60 % 85 % 0 % 984,8 hPa 0,0 l/m 12,8 km/h (3 Bft) 0 min 7,9 km/h (2 Bft)
26.02.2010 08:24 14,0 C 9,6 C 0,0 UV-I 0,0 C 60 % 85 % 0 % 984,8 hPa 0,0 l/m 13,7 km/h (3 Bft) 0 min 10,6 km/h (2 Bft)
26.02.2010 08:26 14,0 C 9,6 C 0,0 UV-I 0,0 C 60 % 85 % 0 % 984,8 hPa 0,0 l/m 14,5 km/h (3 Bft) 0 min 15,2 km/h (3 Bft)
26.02.2010 08:28 14,0 C 9,7 C 0,0 UV-I 0,0 C 60 % 85 % 0 % 984,8 hPa 0,0 l/m 14,1 km/h (3 Bft) 0 min 7,9 km/h (2 Bft)
26.02.2010 08:30 14,0 C 9,6 C 0,0 UV-I 0,0 C 60 % 85 % 0 % 984,8 hPa 0,0 l/m 14,1 km/h (3 Bft) 0 min 16,1 km/h (3 Bft)
26.02.2010 08:32 14,0 C 9,6 C 0,0 UV-I 0,0 C 60 % 84 % 0 % 984,7 hPa 0,0 l/m 14,5 km/h (3 Bft) 0 min 17,3 km/h (3 Bft)
26.02.2010 08:34 14,0 C 9,7 C 0,1 UV-I 0,0 C 60 % 84 % 0 % 984,7 hPa 0,0 l/m 14,1 km/h (3 Bft) 0 min 9,4 km/h (2 Bft)
26.02.2010 08:36 14,0 C 9,7 C 0,1 UV-I 0,0 C 60 % 84 % 0 % 984,7 hPa 0,0 l/m 14,5 km/h (3 Bft) 0 min 12,8 km/h (3 Bft)
26.02.2010 08:38 14,0 C 9,7 C 0,1 UV-I 0,1 C 60 % 84 % 3 % 984,7 hPa 0,0 l/m 14,1 km/h (3 Bft) 0 min 11,3 km/h (2 Bft)
26.02.2010 08:40 14,0 C 9,9 C 0,1 UV-I 0,0 C 60 % 84 % 0 % 984,7 hPa 0,0 l/m 14,1 km/h (3 Bft) 0 min 7,7 km/h (2 Bft)
26.02.2010 08:42 14,0 C 9,8 C 0,1 UV-I 0,1 C 60 % 84 % 3 % 984,7 hPa 0,0 l/m 13,3 km/h (3 Bft) 0 min 14,2 km/h (3 Bft)
26.02.2010 08:44 14,0 C 9,9 C 0,1 UV-I 0,0 C 60 % 84 % 0 % 984,7 hPa 0,0 l/m 13,3 km/h (3 Bft) 0 min 8,7 km/h (2 Bft)
26.02.2010 08:46 14,0 C 9,9 C 0,1 UV-I 0,0 C 60 % 84 % 0 % 984,7 hPa 0,0 l/m 13,3 km/h (3 Bft) 0 min 7,7 km/h (2 Bft)
26.02.2010 08:48 14,0 C 9,9 C 0,1 UV-I 0,0 C 60 % 83 % 0 % 984,7 hPa 0,0 l/m 14,1 km/h (3 Bft) 0 min 9,6 km/h (2 Bft)
26.02.2010 08:50 14,0 C 9,9 C 0,1 UV-I 0,1 C 60 % 83 % 3 % 984,7 hPa 0,0 l/m 14,1 km/h (3 Bft) 0 min 14,0 km/h (3 Bft)
26.02.2010 08:52 14,0 C 9,9 C 0,1 UV-I 0,1 C 60 % 83 % 3 % 984,9 hPa 0,0 l/m 14,1 km/h (3 Bft) 0 min 17,6 km/h (3 Bft)
26.02.2010 08:56 14,0 C 10,0 C 0,1 UV-I 0,3 C 60 % 83 % 9 % 984,9 hPa 0,0 l/m 13,7 km/h (3 Bft) 0 min 14,0 km/h (3 Bft)
26.02.2010 08:58 14,0 C 9,9 C 0,2 UV-I 0,6 C 60 % 83 % 17 % 984,9 hPa 0,0 l/m 13,3 km/h (3 Bft) 0 min 10,8 km/h (2 Bft)
26.02.2010 09:00 14,0 C 10,0 C 0,2 UV-I 0,5 C 60 % 83 % 14 % 984,9 hPa 0,0 l/m 12,8 km/h (3 Bft) 0 min 11,3 km/h (2 Bft)
26.02.2010 09:02 13,9 C 10,0 C 0,2 UV-I 0,4 C 60 % 83 % 11 % 984,9 hPa 0,0 l/m 14,1 km/h (3 Bft) 0 min 14,2 km/h (3 Bft)
26.02.2010 09:04 13,9 C 10,0 C 0,1 UV-I 0,3 C 60 % 83 % 9 % 984,9 hPa 0,0 l/m 14,5 km/h (3 Bft) 0 min 17,3 km/h (3 Bft)
26.02.2010 09:06 13,9 C 10,1 C 0,1 UV-I 0,2 C 60 % 83 % 6 % 984,9 hPa 0,0 l/m 15,3 km/h (3 Bft) 0 min 14,2 km/h (3 Bft)
26.02.2010 09:08 13,9 C 10,0 C 0,2 UV-I 0,2 C 60 % 82 % 6 % 984,9 hPa 0,0 l/m 15,7 km/h (3 Bft) 0 min 8,4 km/h (2 Bft)
26.02.2010 09:10 13,9 C 10,0 C 0,2 UV-I 0,0 C 60 % 82 % 0 % 984,9 hPa 0,0 l/m 16,5 km/h (3 Bft) 0 min 9,1 km/h (2 Bft)
26.02.2010 09:12 13,9 C 10,0 C 0,2 UV-I 0,1 C 60 % 82 % 3 % 985,1 hPa 0,0 l/m 16,1 km/h (3 Bft) 0 min 21,4 km/h (4 Bft)
26.02.2010 09:14 13,9 C 10,0 C 0,2 UV-I 0,0 C 60 % 82 % 0 % 985,1 hPa 0,0 l/m 16,5 km/h (3 Bft) 0 min 9,6 km/h (2 Bft)
26.02.2010 09:16 13,9 C 10,0 C 0,2 UV-I 0,0 C 60 % 82 % 0 % 985,1 hPa 0,0 l/m 15,3 km/h (3 Bft) 0 min 12,5 km/h (3 Bft)
26.02.2010 09:18 13,9 C 10,0 C 0,8 UV-I 0,2 C 60 % 82 % 6 % 985,1 hPa 0,0 l/m 13,7 km/h (3 Bft) 0 min 10,3 km/h (2 Bft)
26.02.2010 09:20 13,9 C 10,0 C 0,8 UV-I 0,2 C 60 % 82 % 6 % 985,1 hPa 0,0 l/m 13,7 km/h (3 Bft) 0 min 12,3 km/h (3 Bft)
26.02.2010 09:22 13,9 C 10,1 C 0,8 UV-I 0,3 C 60 % 82 % 9 % 985,1 hPa 0,0 l/m 12,8 km/h (3 Bft) 0 min 7,9 km/h (2 Bft)
26.02.2010 09:24 13,9 C 10,1 C 0,8 UV-I 0,3 C 60 % 82 % 9 % 985,1 hPa 0,0 l/m 12,8 km/h (3 Bft) 0 min 11,5 km/h (2 Bft)
26.02.2010 09:26 13,9 C 10,1 C 0,8 UV-I 0,3 C 60 % 82 % 9 % 985,1 hPa 0,0 l/m 12,8 km/h (3 Bft) 0 min 10,6 km/h (2 Bft)
26.02.2010 09:28 13,9 C 10,1 C 0,7 UV-I 0,4 C 60 % 82 % 11 % 985,1 hPa 0,0 l/m 12,8 km/h (3 Bft) 0 min 10,3 km/h (2 Bft)
26.02.2010 09:30 14,1 C 10,2 C 0,7 UV-I 0,3 C 60 % 82 % 9 % 985,1 hPa 0,0 l/m 12,8 km/h (3 Bft) 0 min 15,2 km/h (3 Bft)
26.02.2010 09:32 14,1 C 10,3 C 0,7 UV-I 0,2 C 60 % 82 % 6 % 985,1 hPa 0,0 l/m 13,3 km/h (3 Bft) 0 min 21,7 km/h (4 Bft)
26.02.2010 09:34 14,1 C 10,3 C 0,6 UV-I 0,1 C 60 % 81 % 3 % 985,1 hPa 0,0 l/m 14,1 km/h (3 Bft) 0 min 6,7 km/h (2 Bft)
26.02.2010 09:36 14,1 C 10,3 C 0,6 UV-I 0,0 C 60 % 81 % 0 % 985,1 hPa 0,0 l/m 14,5 km/h (3 Bft) 0 min 8,9 km/h (2 Bft)
26.02.2010 09:38 14,1 C 10,3 C 0,7 UV-I 0,0 C 60 % 81 % 0 % 985,1 hPa 0,0 l/m 14,9 km/h (3 Bft) 0 min 9,6 km/h (2 Bft)
26.02.2010 09:40 14,1 C 10,2 C 0,7 UV-I 0,1 C 59 % 81 % 3 % 985,1 hPa 0,0 l/m 14,9 km/h (3 Bft) 0 min 14,2 km/h (3 Bft)
26.02.2010 09:42 14,1 C 10,3 C 0,7 UV-I 0,1 C 59 % 81 % 3 % 985,1 hPa 0,0 l/m 14,5 km/h (3 Bft) 0 min 12,0 km/h (2 Bft)
26.02.2010 09:44 14,1 C 10,3 C 0,7 UV-I 0,3 C 59 % 81 % 9 % 985,1 hPa 0,0 l/m 13,7 km/h (3 Bft) 0 min 7,2 km/h (2 Bft)
26.02.2010 09:46 14,1 C 10,4 C 0,7 UV-I 0,3 C 60 % 81 % 9 % 985,1 hPa 0,0 l/m 14,9 km/h (3 Bft) 0 min 13,7 km/h (3 Bft)
26.02.2010 09:48 14,1 C 10,4 C 0,9 UV-I 0,2 C 59 % 80 % 6 % 985,1 hPa 0,0 l/m 16,1 km/h (3 Bft) 0 min 16,1 km/h (3 Bft)
26.02.2010 09:50 14,1 C 10,4 C 0,9 UV-I 0,2 C 59 % 80 % 6 % 985,1 hPa 0,0 l/m 16,5 km/h (3 Bft) 0 min 14,7 km/h (3 Bft)
26.02.2010 09:54 14,1 C 10,4 C 0,7 UV-I 0,0 C 59 % 79 % 0 % 985,0 hPa 0,0 l/m 19,3 km/h (3 Bft) 0 min 25,0 km/h (4 Bft)
26.02.2010 09:56 14,2 C 10,5 C 0,7 UV-I 0,0 C 59 % 79 % 0 % 985,0 hPa 0,0 l/m 19,3 km/h (3 Bft) 0 min 9,9 km/h (2 Bft)
26.02.2010 09:58 14,1 C 10,5 C 0,5 UV-I 0,0 C 59 % 79 % 0 % 985,0 hPa 0,0 l/m 17,7 km/h (3 Bft) 0 min 14,4 km/h (3 Bft)
26.02.2010 10:00 14,2 C 10,5 C 0,5 UV-I 0,0 C 59 % 79 % 0 % 985,0 hPa 0,0 l/m 18,1 km/h (3 Bft) 0 min 11,8 km/h (2 Bft)
26.02.2010 10:04 14,2 C 10,6 C 0,6 UV-I 0,2 C 59 % 79 % 6 % 985,0 hPa 0,0 l/m 14,1 km/h (3 Bft) 0 min 12,5 km/h (3 Bft)
26.02.2010 10:06 14,2 C 10,5 C 0,6 UV-I 0,4 C 59 % 79 % 11 % 985,0 hPa 0,0 l/m 14,9 km/h (3 Bft) 0 min 13,7 km/h (3 Bft)
26.02.2010 10:10 14,2 C 10,7 C 0,6 UV-I 0,5 C 59 % 79 % 14 % 985,0 hPa 0,0 l/m 12,0 km/h (2 Bft) 0 min 3,8 km/h (1 Bft)
26.02.2010 10:12 14,2 C 10,7 C 0,6 UV-I 0,5 C 59 % 79 % 14 % 985,2 hPa 0,0 l/m 12,4 km/h (3 Bft) 0 min 26,0 km/h (4 Bft)
26.02.2010 10:16 14,2 C 10,7 C 0,6 UV-I 0,6 C 59 % 79 % 17 % 985,2 hPa 0,0 l/m 10,8 km/h (2 Bft) 0 min 9,6 km/h (2 Bft)
26.02.2010 10:18 14,2 C 10,7 C 0,7 UV-I 0,6 C 59 % 78 % 17 % 985,2 hPa 0,0 l/m 10,4 km/h (2 Bft) 0 min 5,8 km/h (2 Bft)
26.02.2010 10:20 14,2 C 10,7 C 0,7 UV-I 0,5 C 59 % 78 % 14 % 985,2 hPa 0,0 l/m 12,4 km/h (3 Bft) 0 min 17,6 km/h (3 Bft)
26.02.2010 10:22 14,2 C 10,7 C 0,7 UV-I 0,6 C 59 % 77 % 17 % 985,2 hPa 0,0 l/m 12,8 km/h (3 Bft) 0 min 11,5 km/h (2 Bft)
26.02.2010 10:26 14,2 C 10,8 C 0,8 UV-I 0,5 C 59 % 77 % 14 % 985,2 hPa 0,0 l/m 13,3 km/h (3 Bft) 0 min 11,8 km/h (2 Bft)
26.02.2010 10:32 14,3 C 10,9 C 1,1 UV-I 0,6 C 59 % 77 % 17 % 985,1 hPa 0,0 l/m 13,3 km/h (3 Bft) 0 min 7,7 km/h (2 Bft)
26.02.2010 10:34 14,1 C 10,9 C 0,9 UV-I 0,7 C 59 % 77 % 20 % 985,1 hPa 0,0 l/m 12,0 km/h (2 Bft) 0 min 11,3 km/h (2 Bft)
26.02.2010 10:38 14,3 C 11,0 C 0,5 UV-I 0,5 C 59 % 77 % 14 % 985,1 hPa 0,0 l/m 11,6 km/h (2 Bft) 0 min 7,5 km/h (2 Bft)
26.02.2010 10:40 14,3 C 10,9 C 0,5 UV-I 0,6 C 58 % 76 % 17 % 985,1 hPa 0,0 l/m 11,6 km/h (2 Bft) 0 min 12,3 km/h (3 Bft)
26.02.2010 10:42 14,3 C 11,0 C 0,5 UV-I 0,3 C 58 % 76 % 9 % 985,1 hPa 0,0 l/m 13,7 km/h (3 Bft) 0 min 14,4 km/h (3 Bft)
26.02.2010 10:44 14,3 C 11,1 C 0,5 UV-I 0,1 C 58 % 76 % 3 % 985,1 hPa 0,0 l/m 13,7 km/h (3 Bft) 0 min 15,4 km/h (3 Bft)
26.02.2010 10:46 14,3 C 11,1 C 0,5 UV-I 0,0 C 58 % 76 % 0 % 985,1 hPa 0,0 l/m 14,9 km/h (3 Bft) 0 min 5,5 km/h (1 Bft)
26.02.2010 10:48 14,3 C 11,1 C 0,4 UV-I 0,0 C 58 % 76 % 0 % 985,1 hPa 0,0 l/m 15,7 km/h (3 Bft) 0 min 19,2 km/h (3 Bft)
26.02.2010 10:50 14,3 C 11,0 C 0,4 UV-I 0,0 C 58 % 76 % 0 % 985,1 hPa 0,0 l/m 16,1 km/h (3 Bft) 0 min 6,7 km/h (2 Bft)
26.02.2010 10:54 14,3 C 11,1 C 0,4 UV-I 0,0 C 58 % 76 % 0 % 985,3 hPa 0,0 l/m 13,7 km/h (3 Bft) 0 min 11,1 km/h (2 Bft)
26.02.2010 10:59 14,3 C 11,1 C 1,2 UV-I 0,4 C 58 % 76 % 11 % 985,3 hPa 0,0 l/m 11,6 km/h (2 Bft) 0 min 15,2 km/h (3 Bft)
26.02.2010 11:04 14,3 C 11,1 C 1,2 UV-I 0,6 C 58 % 75 % 17 % 985,3 hPa 0,0 l/m 12,4 km/h (3 Bft) 0 min 6,0 km/h (2 Bft)
26.02.2010 11:06 14,2 C 11,2 C 1,2 UV-I 0,5 C 58 % 76 % 14 % 985,3 hPa 0,0 l/m 12,4 km/h (3 Bft) 0 min 12,0 km/h (2 Bft)
26.02.2010 11:08 14,3 C 11,3 C 2,0 UV-I 0,6 C 58 % 75 % 17 % 985,3 hPa 0,0 l/m 12,4 km/h (3 Bft) 0 min 3,6 km/h (1 Bft)
26.02.2010 11:14 14,2 C 11,3 C 3,0 UV-I 1,3 C 58 % 74 % 37 % 985,3 hPa 0,0 l/m 12,4 km/h (3 Bft) 0 min 14,9 km/h (3 Bft)
26.02.2010 11:16 14,4 C 11,5 C 3,0 UV-I 1,3 C 58 % 75 % 37 % 985,3 hPa 0,0 l/m 12,4 km/h (3 Bft) 0 min 16,4 km/h (3 Bft)
26.02.2010 11:20 14,4 C 11,4 C 2,6 UV-I 1,7 C 58 % 74 % 49 % 985,3 hPa 0,0 l/m 13,3 km/h (3 Bft) 0 min 9,4 km/h (2 Bft)
26.02.2010 11:24 14,4 C 11,6 C 2,3 UV-I 1,7 C 58 % 74 % 49 % 985,3 hPa 0,0 l/m 12,8 km/h (3 Bft) 0 min 14,0 km/h (3 Bft)
26.02.2010 11:28 14,4 C 11,6 C 2,0 UV-I 1,3 C 58 % 73 % 37 % 985,3 hPa 0,0 l/m 13,7 km/h (3 Bft) 0 min 13,2 km/h (3 Bft)
26.02.2010 11:32 14,4 C 11,6 C 2,0 UV-I 1,0 C 58 % 73 % 29 % 985,5 hPa 0,0 l/m 15,3 km/h (3 Bft) 0 min 39,2 km/h (6 Bft)
26.02.2010 11:34 14,4 C 11,6 C 1,8 UV-I 0,8 C 58 % 73 % 23 % 985,5 hPa 0,0 l/m 15,7 km/h (3 Bft) 0 min 10,6 km/h (2 Bft)
26.02.2010 11:36 14,4 C 11,6 C 1,8 UV-I 0,7 C 58 % 74 % 20 % 985,5 hPa 0,0 l/m 16,5 km/h (3 Bft) 0 min 15,2 km/h (3 Bft)
26.02.2010 11:40 14,4 C 11,6 C 1,6 UV-I 1,0 C 58 % 74 % 29 % 985,5 hPa 0,0 l/m 13,7 km/h (3 Bft) 0 min 7,0 km/h (2 Bft)
26.02.2010 11:50 14,3 C 11,7 C 1,3 UV-I 0,9 C 57 % 73 % 26 % 985,5 hPa 0,0 l/m 12,4 km/h (3 Bft) 0 min 13,0 km/h (3 Bft)
26.02.2010 11:52 14,3 C 11,6 C 1,3 UV-I 0,9 C 57 % 73 % 26 % 985,5 hPa 0,0 l/m 12,0 km/h (2 Bft) 0 min 7,5 km/h (2 Bft)
26.02.2010 12:02 14,5 C 11,7 C 2,0 UV-I 1,0 C 57 % 73 % 29 % 985,5 hPa 0,0 l/m 12,4 km/h (3 Bft) 0 min 11,3 km/h (2 Bft)
26.02.2010 12:04 14,5 C 11,7 C 2,0 UV-I 1,0 C 57 % 73 % 29 % 985,5 hPa 0,0 l/m 12,4 km/h (3 Bft) 0 min 11,3 km/h (2 Bft)
26.02.2010 12:06 14,5 C 11,8 C 2,0 UV-I 0,6 C 57 % 72 % 17 % 985,5 hPa 0,0 l/m 15,3 km/h (3 Bft) 0 min 8,9 km/h (2 Bft)
26.02.2010 12:08 14,5 C 11,8 C 1,0 UV-I 0,8 C 57 % 72 % 23 % 985,5 hPa 0,0 l/m 14,1 km/h (3 Bft) 0 min 4,3 km/h (1 Bft)
26.02.2010 12:10 14,5 C 11,7 C 1,0 UV-I 0,5 C 57 % 72 % 14 % 985,5 hPa 0,0 l/m 14,1 km/h (3 Bft) 0 min 5,8 km/h (2 Bft)
26.02.2010 12:14 14,5 C 11,7 C 0,6 UV-I 0,2 C 57 % 73 % 6 % 986,1 hPa 0,0 l/m 13,7 km/h (3 Bft) 0 min 14,2 km/h (3 Bft)
26.02.2010 12:16 14,5 C 11,6 C 0,6 UV-I 0,1 C 57 % 74 % 3 % 986,1 hPa 0,0 l/m 12,4 km/h (3 Bft) 0 min 7,9 km/h (2 Bft)
26.02.2010 12:18 14,5 C 11,6 C 0,4 UV-I 0,0 C 57 % 74 % 0 % 986,1 hPa 0,0 l/m 12,8 km/h (3 Bft) 0 min 11,8 km/h (2 Bft)
26.02.2010 12:20 14,5 C 11,5 C 0,4 UV-I 0,0 C 57 % 75 % 0 % 986,1 hPa 0,1 l/m 14,1 km/h (3 Bft) 0 min 16,4 km/h (3 Bft)
26.02.2010 12:22 14,5 C 11,5 C 0,4 UV-I 0,0 C 57 % 77 % 0 % 986,1 hPa 0,0 l/m 15,3 km/h (3 Bft) 0 min 14,9 km/h (3 Bft)
26.02.2010 12:24 14,3 C 11,2 C 0,2 UV-I 0,0 C 57 % 77 % 0 % 986,1 hPa 0,0 l/m 14,9 km/h (3 Bft) 0 min 9,4 km/h (2 Bft)
26.02.2010 12:29 14,3 C 11,1 C 0,7 UV-I 0,0 C 57 % 79 % 0 % 986,1 hPa 0,2 l/m 11,6 km/h (2 Bft) 0 min 2,9 km/h (1 Bft)
26.02.2010 12:34 14,3 C 10,9 C 1,1 UV-I 0,0 C 58 % 80 % 0 % 986,2 hPa 0,0 l/m 9,2 km/h (2 Bft) 0 min 5,3 km/h (1 Bft)
26.02.2010 12:39 14,3 C 10,8 C 1,1 UV-I 0,0 C 58 % 80 % 0 % 986,2 hPa 0,1 l/m 8,8 km/h (2 Bft) 0 min 13,5 km/h (3 Bft)
26.02.2010 12:44 14,3 C 10,8 C 1,7 UV-I 0,0 C 58 % 81 % 0 % 986,2 hPa 0,0 l/m 11,2 km/h (2 Bft) 0 min 8,2 km/h (2 Bft)
26.02.2010 12:49 14,3 C 10,7 C 1,5 UV-I 0,0 C 58 % 81 % 0 % 986,2 hPa 0,0 l/m 13,7 km/h (3 Bft) 0 min 7,2 km/h (2 Bft)
26.02.2010 12:54 14,3 C 10,7 C 0,9 UV-I 0,0 C 58 % 81 % 0 % 986,1 hPa 0,0 l/m 14,9 km/h (3 Bft) 0 min 7,0 km/h (2 Bft)
26.02.2010 12:59 14,3 C 10,4 C 0,2 UV-I 0,0 C 58 % 83 % 0 % 986,1 hPa 0,3 l/m 14,9 km/h (3 Bft) 0 min 7,0 km/h (2 Bft)
26.02.2010 13:04 14,4 C 10,1 C 0,1 UV-I 0,0 C 58 % 83 % 0 % 986,1 hPa 0,2 l/m 14,1 km/h (3 Bft) 0 min 7,7 km/h (2 Bft)
26.02.2010 13:09 14,4 C 9,9 C 0,5 UV-I 0,0 C 59 % 84 % 0 % 986,1 hPa 0,1 l/m 11,6 km/h (2 Bft) 0 min 7,7 km/h (2 Bft)
26.02.2010 13:14 14,4 C 9,8 C 0,7 UV-I 0,0 C 59 % 85 % 0 % 986,5 hPa 0,0 l/m 9,6 km/h (2 Bft) 0 min 8,9 km/h (2 Bft)
26.02.2010 13:16 14,2 C 9,8 C 0,7 UV-I 0,0 C 59 % 85 % 0 % 986,5 hPa 0,0 l/m 9,6 km/h (2 Bft) 0 min 12,3 km/h (3 Bft)
26.02.2010 13:18 14,2 C 9,7 C 0,4 UV-I 0,0 C 59 % 85 % 0 % 986,5 hPa 0,1 l/m 9,6 km/h (2 Bft) 0 min 12,8 km/h (3 Bft)
26.02.2010 13:20 14,2 C 9,6 C 0,4 UV-I 0,0 C 59 % 85 % 0 % 986,5 hPa 0,0 l/m 10,8 km/h (2 Bft) 0 min 8,2 km/h (2 Bft)
26.02.2010 13:22 14,3 C 9,5 C 0,4 UV-I 0,0 C 59 % 85 % 0 % 986,5 hPa 0,1 l/m 10,4 km/h (2 Bft) 0 min 5,1 km/h (1 Bft)
26.02.2010 13:24 14,3 C 9,5 C 0,1 UV-I 0,0 C 59 % 86 % 0 % 986,5 hPa 0,1 l/m 11,2 km/h (2 Bft) 0 min 8,9 km/h (2 Bft)
26.02.2010 13:26 14,3 C 9,4 C 0,1 UV-I 0,0 C 59 % 86 % 0 % 986,5 hPa 0,0 l/m 11,6 km/h (2 Bft) 0 min 8,2 km/h (2 Bft)
26.02.2010 13:28 14,3 C 9,5 C 0,2 UV-I 0,0 C 59 % 86 % 0 % 986,5 hPa 0,2 l/m 11,6 km/h (2 Bft) 0 min 8,2 km/h (2 Bft)
26.02.2010 13:30 14,3 C 9,3 C 0,2 UV-I 0,0 C 59 % 86 % 0 % 986,5 hPa 0,1 l/m 10,0 km/h (2 Bft) 0 min 9,4 km/h (2 Bft)
26.02.2010 13:32 14,1 C 9,2 C 0,2 UV-I 0,0 C 59 % 86 % 0 % 987,1 hPa 0,0 l/m 11,6 km/h (2 Bft) 0 min 8,2 km/h (2 Bft)
26.02.2010 13:34 14,1 C 9,2 C 0,0 UV-I 0,0 C 59 % 86 % 0 % 987,1 hPa 0,1 l/m 10,8 km/h (2 Bft) 0 min 12,0 km/h (2 Bft)
26.02.2010 13:36 14,1 C 9,2 C 0,0 UV-I 0,0 C 59 % 87 % 0 % 987,1 hPa 0,0 l/m 10,4 km/h (2 Bft) 0 min 11,8 km/h (2 Bft)
26.02.2010 13:38 14,2 C 9,1 C 0,0 UV-I 0,0 C 59 % 87 % 0 % 987,1 hPa 0,2 l/m 10,8 km/h (2 Bft) 0 min 10,8 km/h (2 Bft)
26.02.2010 13:40 14,2 C 9,0 C 0,0 UV-I 0,0 C 60 % 87 % 0 % 987,1 hPa 0,1 l/m 10,8 km/h (2 Bft) 0 min 6,0 km/h (2 Bft)
26.02.2010 13:42 14,2 C 9,1 C 0,0 UV-I 0,0 C 60 % 87 % 0 % 987,1 hPa 0,0 l/m 9,6 km/h (2 Bft) 0 min 6,0 km/h (2 Bft)
26.02.2010 13:44 14,2 C 9,1 C 0,3 UV-I 0,0 C 60 % 87 % 0 % 987,1 hPa 0,1 l/m 8,8 km/h (2 Bft) 0 min 9,1 km/h (2 Bft)
26.02.2010 13:46 14,2 C 9,0 C 0,3 UV-I 0,0 C 60 % 87 % 0 % 987,1 hPa 0,2 l/m 9,2 km/h (2 Bft) 0 min 5,1 km/h (1 Bft)
26.02.2010 13:48 14,2 C 9,0 C 0,9 UV-I 0,0 C 60 % 87 % 0 % 987,1 hPa 0,0 l/m 9,2 km/h (2 Bft) 0 min 10,1 km/h (2 Bft)
26.02.2010 13:50 14,2 C 8,9 C 0,9 UV-I 0,0 C 60 % 87 % 0 % 987,1 hPa 0,1 l/m 9,6 km/h (2 Bft) 0 min 9,4 km/h (2 Bft)
26.02.2010 13:52 14,2 C 8,9 C 0,9 UV-I 0,0 C 60 % 87 % 0 % 987,4 hPa 0,1 l/m 10,4 km/h (2 Bft) 0 min 7,7 km/h (2 Bft)
26.02.2010 13:54 14,1 C 8,9 C 0,8 UV-I 0,0 C 60 % 88 % 0 % 987,4 hPa 0,0 l/m 10,4 km/h (2 Bft) 0 min 6,5 km/h (2 Bft)
26.02.2010 13:56 14,1 C 8,9 C 0,8 UV-I 0,0 C 60 % 88 % 0 % 987,4 hPa 0,0 l/m 9,6 km/h (2 Bft) 0 min 8,2 km/h (2 Bft)
26.02.2010 13:58 14,1 C 8,9 C 0,3 UV-I 0,0 C 60 % 88 % 0 % 987,4 hPa 0,1 l/m 9,6 km/h (2 Bft) 0 min 6,5 km/h (2 Bft)
26.02.2010 14:00 14,1 C 8,9 C 0,3 UV-I 0,0 C 60 % 88 % 0 % 987,4 hPa 0,0 l/m 10,0 km/h (2 Bft) 0 min 13,0 km/h (3 Bft)
26.02.2010 14:02 14,1 C 8,8 C 0,3 UV-I 0,0 C 60 % 88 % 0 % 987,4 hPa 0,1 l/m 10,0 km/h (2 Bft) 0 min 11,8 km/h (2 Bft)
26.02.2010 14:04 14,1 C 8,7 C 0,0 UV-I 0,0 C 60 % 88 % 0 % 987,4 hPa 0,1 l/m 11,2 km/h (2 Bft) 0 min 10,3 km/h (2 Bft)
26.02.2010 14:06 14,1 C 8,7 C 0,0 UV-I 0,0 C 60 % 88 % 0 % 987,4 hPa 0,0 l/m 12,4 km/h (3 Bft) 0 min 10,8 km/h (2 Bft)
26.02.2010 14:08 13,9 C 8,7 C 0,4 UV-I 0,0 C 60 % 88 % 0 % 987,4 hPa 0,0 l/m 12,8 km/h (3 Bft) 0 min 14,9 km/h (3 Bft)
26.02.2010 14:10 13,9 C 8,7 C 0,4 UV-I 0,0 C 60 % 88 % 0 % 987,4 hPa 0,0 l/m 13,7 km/h (3 Bft) 0 min 19,2 km/h (3 Bft)
26.02.2010 14:12 14,0 C 8,7 C 0,4 UV-I 0,0 C 60 % 88 % 0 % 988,3 hPa 0,0 l/m 13,3 km/h (3 Bft) 0 min 26,5 km/h (4 Bft)
26.02.2010 14:14 14,0 C 8,5 C 0,4 UV-I 0,0 C 60 % 89 % 0 % 988,3 hPa 0,0 l/m 12,4 km/h (3 Bft) 0 min 6,0 km/h (2 Bft)
26.02.2010 14:16 14,0 C 8,5 C 0,4 UV-I 0,0 C 60 % 89 % 0 % 988,3 hPa 0,0 l/m 12,4 km/h (3 Bft) 0 min 10,6 km/h (2 Bft)
26.02.2010 14:18 14,0 C 8,4 C 0,0 UV-I 0,0 C 60 % 89 % 0 % 988,3 hPa 0,0 l/m 12,0 km/h (2 Bft) 0 min 15,6 km/h (3 Bft)
26.02.2010 14:20 14,0 C 8,5 C 0,0 UV-I 0,0 C 60 % 89 % 0 % 988,3 hPa 0,1 l/m 12,0 km/h (2 Bft) 0 min 4,6 km/h (1 Bft)
26.02.2010 14:22 14,0 C 8,4 C 0,0 UV-I 0,0 C 60 % 89 % 0 % 988,3 hPa 0,0 l/m 11,6 km/h (2 Bft) 0 min 14,9 km/h (3 Bft)
26.02.2010 14:24 14,0 C 8,4 C 0,0 UV-I 0,0 C 60 % 89 % 0 % 988,3 hPa 0,0 l/m 10,4 km/h (2 Bft) 0 min 6,5 km/h (2 Bft)
26.02.2010 14:26 14,0 C 8,4 C 0,0 UV-I 0,0 C 60 % 89 % 0 % 988,3 hPa 0,0 l/m 10,8 km/h (2 Bft) 0 min 5,8 km/h (2 Bft)
26.02.2010 14:28 14,0 C 8,3 C 0,0 UV-I 0,0 C 60 % 89 % 0 % 988,3 hPa 0,1 l/m 10,8 km/h (2 Bft) 0 min 9,1 km/h (2 Bft)
26.02.2010 14:30 13,8 C 8,3 C 0,0 UV-I 0,0 C 61 % 89 % 0 % 988,3 hPa 0,0 l/m 10,8 km/h (2 Bft) 0 min 15,4 km/h (3 Bft)
26.02.2010 14:32 13,9 C 8,2 C 0,0 UV-I 0,0 C 61 % 89 % 0 % 988,3 hPa 0,0 l/m 11,6 km/h (2 Bft) 0 min 11,5 km/h (2 Bft)
26.02.2010 14:34 13,9 C 8,3 C 0,0 UV-I 0,0 C 61 % 89 % 0 % 988,3 hPa 0,0 l/m 11,6 km/h (2 Bft) 0 min 4,8 km/h (1 Bft)
26.02.2010 14:36 13,9 C 8,3 C 0,0 UV-I 0,0 C 61 % 89 % 0 % 988,3 hPa 0,0 l/m 12,0 km/h (2 Bft) 0 min 8,7 km/h (2 Bft)
26.02.2010 14:38 13,9 C 8,2 C 0,0 UV-I 0,0 C 61 % 89 % 0 % 988,3 hPa 0,1 l/m 11,2 km/h (2 Bft) 0 min 2,4 km/h (1 Bft)
26.02.2010 14:40 13,9 C 8,2 C 0,0 UV-I 0,0 C 61 % 89 % 0 % 988,3 hPa 0,0 l/m 12,0 km/h (2 Bft) 0 min 11,8 km/h (2 Bft)
26.02.2010 14:42 13,8 C 8,0 C 0,0 UV-I 0,0 C 61 % 89 % 0 % 988,3 hPa 0,1 l/m 11,2 km/h (2 Bft) 0 min 7,2 km/h (2 Bft)
26.02.2010 14:44 13,8 C 8,0 C 0,1 UV-I 0,0 C 61 % 89 % 0 % 988,3 hPa 0,0 l/m 11,2 km/h (2 Bft) 0 min 11,1 km/h (2 Bft)
26.02.2010 14:48 13,8 C 8,0 C 0,6 UV-I 0,0 C 61 % 89 % 0 % 988,3 hPa 0,0 l/m 14,1 km/h (3 Bft) 0 min 22,4 km/h (4 Bft)
26.02.2010 14:50 13,8 C 8,0 C 0,6 UV-I 0,0 C 61 % 89 % 0 % 988,3 hPa 0,1 l/m 15,3 km/h (3 Bft) 0 min 11,5 km/h (2 Bft)
26.02.2010 14:52 13,8 C 8,0 C 0,6 UV-I 0,0 C 61 % 89 % 0 % 989,2 hPa 0,0 l/m 15,7 km/h (3 Bft) 0 min 11,1 km/h (2 Bft)
26.02.2010 14:54 13,8 C 7,9 C 0,2 UV-I 0,0 C 61 % 89 % 0 % 989,2 hPa 0,0 l/m 15,3 km/h (3 Bft) 0 min 8,4 km/h (2 Bft)
26.02.2010 14:56 13,8 C 7,9 C 0,2 UV-I 0,0 C 61 % 89 % 0 % 989,2 hPa 0,1 l/m 15,3 km/h (3 Bft) 0 min 14,7 km/h (3 Bft)
26.02.2010 14:58 13,6 C 7,9 C 0,1 UV-I 0,0 C 61 % 89 % 0 % 989,2 hPa 0,0 l/m 16,1 km/h (3 Bft) 0 min 36,8 km/h (5 Bft)
26.02.2010 15:00 13,6 C 7,8 C 0,1 UV-I 0,0 C 61 % 89 % 0 % 989,2 hPa 0,0 l/m 15,3 km/h (3 Bft) 0 min 9,4 km/h (2 Bft)
26.02.2010 15:04 13,6 C 7,9 C 1,1 UV-I 0,0 C 61 % 89 % 0 % 989,2 hPa 0,0 l/m 15,7 km/h (3 Bft) 0 min 14,4 km/h (3 Bft)
26.02.2010 15:06 13,6 C 7,9 C 1,1 UV-I 0,0 C 61 % 89 % 0 % 989,2 hPa 0,0 l/m 16,1 km/h (3 Bft) 0 min 8,4 km/h (2 Bft)
26.02.2010 15:08 13,6 C 7,9 C 1,5 UV-I 0,0 C 61 % 89 % 0 % 989,2 hPa 0,1 l/m 15,7 km/h (3 Bft) 0 min 9,1 km/h (2 Bft)
26.02.2010 15:10 13,6 C 7,9 C 1,5 UV-I 0,0 C 61 % 89 % 0 % 989,2 hPa 0,0 l/m 14,9 km/h (3 Bft) 0 min 13,7 km/h (3 Bft)
26.02.2010 15:12 13,6 C 7,9 C 1,5 UV-I 0,0 C 61 % 88 % 0 % 990,2 hPa 0,0 l/m 16,9 km/h (3 Bft) 0 min 28,1 km/h (4 Bft)
26.02.2010 15:14 13,6 C 7,9 C 1,4 UV-I 0,0 C 61 % 88 % 0 % 990,2 hPa 0,0 l/m 17,3 km/h (3 Bft) 0 min 24,1 km/h (4 Bft)
26.02.2010 15:16 13,6 C 7,9 C 1,4 UV-I 0,0 C 61 % 88 % 0 % 990,2 hPa 0,0 l/m 16,5 km/h (3 Bft) 0 min 11,5 km/h (2 Bft)
26.02.2010 15:18 13,6 C 7,8 C 1,0 UV-I 0,0 C 61 % 88 % 0 % 990,2 hPa 0,0 l/m 16,9 km/h (3 Bft) 0 min 12,0 km/h (2 Bft)
26.02.2010 15:20 13,6 C 7,8 C 1,0 UV-I 0,0 C 61 % 87 % 0 % 990,2 hPa 0,0 l/m 16,9 km/h (3 Bft) 0 min 13,5 km/h (3 Bft)
26.02.2010 15:22 13,6 C 7,8 C 1,0 UV-I 0,0 C 61 % 87 % 0 % 990,2 hPa 0,0 l/m 17,3 km/h (3 Bft) 0 min 13,7 km/h (3 Bft)
26.02.2010 15:24 13,6 C 7,7 C 0,8 UV-I 0,0 C 61 % 87 % 0 % 990,2 hPa 0,0 l/m 15,7 km/h (3 Bft) 0 min 10,8 km/h (2 Bft)
26.02.2010 15:26 13,6 C 7,7 C 0,8 UV-I 0,0 C 60 % 87 % 0 % 990,2 hPa 0,0 l/m 14,5 km/h (3 Bft) 0 min 4,3 km/h (1 Bft)
26.02.2010 15:28 13,6 C 7,7 C 0,9 UV-I 0,0 C 60 % 87 % 0 % 990,2 hPa 0,0 l/m 13,7 km/h (3 Bft) 0 min 5,5 km/h (1 Bft)
26.02.2010 15:32 13,6 C 7,7 C 0,9 UV-I 0,0 C 60 % 87 % 0 % 990,3 hPa 0,0 l/m 12,0 km/h (2 Bft) 0 min 11,8 km/h (2 Bft)
26.02.2010 15:34 13,6 C 7,7 C 0,8 UV-I 0,0 C 60 % 87 % 0 % 990,3 hPa 0,0 l/m 12,8 km/h (3 Bft) 0 min 12,0 km/h (2 Bft)
26.02.2010 15:36 13,7 C 7,7 C 0,8 UV-I 0,0 C 60 % 87 % 0 % 990,3 hPa 0,0 l/m 12,0 km/h (2 Bft) 0 min 3,6 km/h (1 Bft)
26.02.2010 15:38 13,6 C 7,6 C 0,3 UV-I 0,0 C 60 % 87 % 0 % 990,3 hPa 0,0 l/m 11,2 km/h (2 Bft) 0 min 11,1 km/h (2 Bft)
26.02.2010 15:40 13,6 C 7,6 C 0,3 UV-I 0,0 C 60 % 87 % 0 % 990,3 hPa 0,0 l/m 12,0 km/h (2 Bft) 0 min 4,3 km/h (1 Bft)
26.02.2010 15:44 13,7 C 7,7 C 0,0 UV-I 0,0 C 60 % 87 % 0 % 990,3 hPa 0,0 l/m 11,6 km/h (2 Bft) 0 min 15,6 km/h (3 Bft)
26.02.2010 15:46 13,7 C 7,6 C 0,0 UV-I 0,0 C 60 % 87 % 0 % 990,3 hPa 0,0 l/m 11,6 km/h (2 Bft) 0 min 9,6 km/h (2 Bft)
26.02.2010 15:48 13,6 C 7,7 C 0,0 UV-I 0,0 C 60 % 87 % 0 % 990,3 hPa 0,2 l/m 14,1 km/h (3 Bft) 0 min 16,1 km/h (3 Bft)
26.02.2010 15:50 13,6 C 7,6 C 0,0 UV-I 0,0 C 60 % 87 % 0 % 990,3 hPa 0,0 l/m 14,5 km/h (3 Bft) 0 min 14,2 km/h (3 Bft)
26.02.2010 15:52 13,6 C 7,5 C 0,0 UV-I 0,0 C 60 % 87 % 0 % 991,2 hPa 0,1 l/m 15,3 km/h (3 Bft) 0 min 11,1 km/h (2 Bft)
26.02.2010 15:54 13,6 C 7,5 C 0,0 UV-I 0,0 C 60 % 87 % 0 % 991,2 hPa 0,1 l/m 16,5 km/h (3 Bft) 0 min 9,9 km/h (2 Bft)
26.02.2010 15:56 13,6 C 7,3 C 0,0 UV-I 0,0 C 60 % 87 % 0 % 991,2 hPa 0,0 l/m 18,1 km/h (3 Bft) 0 min 10,3 km/h (2 Bft)
26.02.2010 15:58 13,6 C 7,2 C 0,1 UV-I 0,0 C 60 % 87 % 0 % 991,2 hPa 0,1 l/m 17,7 km/h (3 Bft) 0 min 15,6 km/h (3 Bft)
26.02.2010 16:00 13,6 C 7,2 C 0,1 UV-I 0,0 C 60 % 87 % 0 % 991,2 hPa 0,0 l/m 16,9 km/h (3 Bft) 0 min 11,1 km/h (2 Bft)
26.02.2010 16:02 13,6 C 7,3 C 0,1 UV-I 0,0 C 60 % 87 % 0 % 991,2 hPa 0,0 l/m 18,1 km/h (3 Bft) 0 min 8,7 km/h (2 Bft)
26.02.2010 16:06 13,4 C 7,2 C 0,3 UV-I 0,0 C 60 % 87 % 0 % 991,2 hPa 0,1 l/m 15,7 km/h (3 Bft) 0 min 11,3 km/h (2 Bft)
26.02.2010 16:10 13,5 C 7,1 C 0,1 UV-I 0,0 C 60 % 88 % 0 % 991,2 hPa 0,0 l/m 15,7 km/h (3 Bft) 0 min 19,2 km/h (3 Bft)
26.02.2010 16:12 13,5 C 7,1 C 0,1 UV-I 0,0 C 60 % 88 % 0 % 991,2 hPa 0,0 l/m 14,1 km/h (3 Bft) 0 min 7,5 km/h (2 Bft)
26.02.2010 16:14 13,5 C 7,1 C 0,4 UV-I 0,0 C 60 % 88 % 0 % 991,2 hPa 0,0 l/m 12,8 km/h (3 Bft) 0 min 7,2 km/h (2 Bft)
26.02.2010 16:16 13,5 C 7,1 C 0,4 UV-I 0,0 C 60 % 88 % 0 % 991,2 hPa 0,0 l/m 13,3 km/h (3 Bft) 0 min 13,0 km/h (3 Bft)
26.02.2010 16:20 13,5 C 7,2 C 0,1 UV-I 0,0 C 60 % 88 % 0 % 991,2 hPa 0,0 l/m 13,3 km/h (3 Bft) 0 min 8,2 km/h (2 Bft)
26.02.2010 16:22 13,5 C 7,1 C 0,1 UV-I 0,0 C 60 % 88 % 0 % 991,2 hPa 0,0 l/m 12,4 km/h (3 Bft) 0 min 6,5 km/h (2 Bft)
26.02.2010 16:28 13,5 C 7,3 C 0,2 UV-I 0,0 C 60 % 87 % 0 % 991,2 hPa 0,1 l/m 13,3 km/h (3 Bft) 0 min 13,0 km/h (3 Bft)
26.02.2010 16:32 13,5 C 7,2 C 0,2 UV-I 0,0 C 60 % 86 % 0 % 991,4 hPa 0,0 l/m 12,8 km/h (3 Bft) 0 min 10,8 km/h (2 Bft)
26.02.2010 16:34 13,5 C 7,2 C 0,1 UV-I 0,0 C 60 % 86 % 0 % 991,4 hPa 0,0 l/m 14,1 km/h (3 Bft) 0 min 7,9 km/h (2 Bft)
26.02.2010 16:36 13,5 C 7,3 C 0,1 UV-I 0,0 C 60 % 86 % 0 % 991,4 hPa 0,0 l/m 13,7 km/h (3 Bft) 0 min 9,6 km/h (2 Bft)
26.02.2010 16:38 13,5 C 7,3 C 0,0 UV-I 0,0 C 60 % 86 % 0 % 991,4 hPa 0,0 l/m 13,7 km/h (3 Bft) 0 min 9,6 km/h (2 Bft)
26.02.2010 16:40 13,5 C 7,3 C 0,0 UV-I 0,0 C 60 % 85 % 0 % 991,4 hPa 0,0 l/m 14,5 km/h (3 Bft) 0 min 10,1 km/h (2 Bft)
26.02.2010 16:46 13,5 C 7,4 C 0,1 UV-I 0,0 C 59 % 83 % 0 % 991,4 hPa 0,0 l/m 15,3 km/h (3 Bft) 0 min 17,1 km/h (3 Bft)
26.02.2010 16:50 13,5 C 7,4 C 0,2 UV-I 0,0 C 59 % 83 % 0 % 991,4 hPa 0,0 l/m 14,9 km/h (3 Bft) 0 min 12,8 km/h (3 Bft)
26.02.2010 16:52 13,5 C 7,4 C 0,2 UV-I 0,0 C 59 % 81 % 0 % 991,9 hPa 0,0 l/m 15,7 km/h (3 Bft) 0 min 25,0 km/h (4 Bft)
26.02.2010 16:54 13,5 C 7,4 C 0,2 UV-I 0,0 C 59 % 81 % 0 % 991,9 hPa 0,0 l/m 14,9 km/h (3 Bft) 0 min 9,4 km/h (2 Bft)
26.02.2010 16:56 13,3 C 7,5 C 0,2 UV-I 0,0 C 59 % 80 % 0 % 991,9 hPa 0,0 l/m 15,7 km/h (3 Bft) 0 min 18,0 km/h (3 Bft)
26.02.2010 16:58 13,3 C 7,5 C 0,0 UV-I 0,0 C 58 % 80 % 0 % 991,9 hPa 0,0 l/m 16,5 km/h (3 Bft) 0 min 18,0 km/h (3 Bft)
26.02.2010 17:00 13,4 C 7,5 C 0,0 UV-I 0,0 C 58 % 79 % 0 % 991,9 hPa 0,0 l/m 17,3 km/h (3 Bft) 0 min 15,4 km/h (3 Bft)
26.02.2010 17:02 13,4 C 7,4 C 0,0 UV-I 0,0 C 58 % 79 % 0 % 991,9 hPa 0,0 l/m 17,3 km/h (3 Bft) 0 min 10,8 km/h (2 Bft)
26.02.2010 17:04 13,4 C 7,5 C 0,0 UV-I 0,0 C 58 % 78 % 0 % 991,9 hPa 0,0 l/m 16,5 km/h (3 Bft) 0 min 13,7 km/h (3 Bft)
26.02.2010 17:06 13,4 C 7,5 C 0,0 UV-I 0,0 C 58 % 78 % 0 % 991,9 hPa 0,0 l/m 17,7 km/h (3 Bft) 0 min 21,2 km/h (4 Bft)
26.02.2010 17:10 13,2 C 7,6 C 0,0 UV-I 0,0 C 58 % 77 % 0 % 991,9 hPa 0,0 l/m 17,7 km/h (3 Bft) 0 min 12,8 km/h (3 Bft)
26.02.2010 17:12 13,2 C 7,5 C 0,0 UV-I 0,0 C 57 % 77 % 0 % 992,1 hPa 0,0 l/m 16,9 km/h (3 Bft) 0 min 7,9 km/h (2 Bft)
26.02.2010 17:14 13,2 C 7,6 C 0,0 UV-I 0,0 C 57 % 77 % 0 % 992,1 hPa 0,0 l/m 15,7 km/h (3 Bft) 0 min 3,6 km/h (1 Bft)
26.02.2010 17:16 13,2 C 7,6 C 0,0 UV-I 0,0 C 57 % 78 % 0 % 992,1 hPa 0,0 l/m 15,3 km/h (3 Bft) 0 min 13,7 km/h (3 Bft)
26.02.2010 17:18 13,2 C 7,6 C 0,0 UV-I 0,0 C 57 % 77 % 0 % 992,1 hPa 0,0 l/m 16,1 km/h (3 Bft) 0 min 16,1 km/h (3 Bft)
26.02.2010 17:20 13,2 C 7,5 C 0,0 UV-I 0,0 C 57 % 77 % 0 % 992,1 hPa 0,0 l/m 14,5 km/h (3 Bft) 0 min 13,0 km/h (3 Bft)
26.02.2010 17:22 13,3 C 7,6 C 0,0 UV-I 0,0 C 57 % 77 % 0 % 992,1 hPa 0,0 l/m 14,1 km/h (3 Bft) 0 min 8,4 km/h (2 Bft)
26.02.2010 17:26 13,1 C 7,5 C 0,0 UV-I 0,0 C 57 % 77 % 0 % 992,1 hPa 0,0 l/m 14,1 km/h (3 Bft) 0 min 19,2 km/h (3 Bft)
26.02.2010 17:28 13,3 C 7,5 C 0,0 UV-I 0,0 C 57 % 77 % 0 % 992,1 hPa 0,0 l/m 12,8 km/h (3 Bft) 0 min 7,2 km/h (2 Bft)
26.02.2010 17:30 13,1 C 7,5 C 0,0 UV-I 0,0 C 57 % 77 % 0 % 992,1 hPa 0,0 l/m 11,6 km/h (2 Bft) 0 min 6,5 km/h (2 Bft)
26.02.2010 17:32 13,1 C 7,5 C 0,0 UV-I 0,0 C 57 % 76 % 0 % 992,6 hPa 0,0 l/m 11,2 km/h (2 Bft) 0 min 13,7 km/h (3 Bft)
26.02.2010 17:34 13,1 C 7,5 C 0,0 UV-I 0,0 C 57 % 76 % 0 % 992,6 hPa 0,0 l/m 12,4 km/h (3 Bft) 0 min 12,8 km/h (3 Bft)
26.02.2010 17:36 13,1 C 7,6 C 0,0 UV-I 0,0 C 57 % 76 % 0 % 992,6 hPa 0,0 l/m 13,7 km/h (3 Bft) 0 min 10,3 km/h (2 Bft)
26.02.2010 17:40 13,1 C 7,6 C 0,0 UV-I 0,0 C 57 % 76 % 0 % 992,6 hPa 0,0 l/m 14,1 km/h (3 Bft) 0 min 14,2 km/h (3 Bft)
26.02.2010 17:42 13,1 C 7,6 C 0,0 UV-I 0,0 C 57 % 75 % 0 % 992,6 hPa 0,0 l/m 15,3 km/h (3 Bft) 0 min 12,8 km/h (3 Bft)
26.02.2010 17:44 13,1 C 7,6 C 0,0 UV-I 0,0 C 57 % 75 % 0 % 992,6 hPa 0,0 l/m 14,9 km/h (3 Bft) 0 min 8,2 km/h (2 Bft)
26.02.2010 17:46 13,1 C 7,6 C 0,0 UV-I 0,0 C 57 % 75 % 0 % 992,6 hPa 0,0 l/m 15,3 km/h (3 Bft) 0 min 18,5 km/h (3 Bft)
26.02.2010 17:50 13,2 C 7,6 C 0,0 UV-I 0,0 C 56 % 75 % 0 % 992,6 hPa 0,0 l/m 15,7 km/h (3 Bft) 0 min 17,3 km/h (3 Bft)
26.02.2010 17:52 13,1 C 7,6 C 0,0 UV-I 0,0 C 56 % 75 % 0 % 993,0 hPa 0,0 l/m 14,9 km/h (3 Bft) 0 min 12,3 km/h (3 Bft)
26.02.2010 17:54 13,1 C 7,6 C 0,0 UV-I 0,0 C 56 % 74 % 0 % 993,0 hPa 0,0 l/m 15,7 km/h (3 Bft) 0 min 18,0 km/h (3 Bft)
26.02.2010 17:56 13,2 C 7,6 C 0,0 UV-I 0,0 C 56 % 74 % 0 % 993,0 hPa 0,0 l/m 16,9 km/h (3 Bft) 0 min 17,8 km/h (3 Bft)
26.02.2010 18:00 13,2 C 7,7 C 0,0 UV-I 0,0 C 56 % 73 % 0 % 993,0 hPa 0,0 l/m 18,1 km/h (3 Bft) 0 min 14,7 km/h (3 Bft)
26.02.2010 18:06 13,2 C 7,6 C 0,0 UV-I 0,0 C 55 % 73 % 0 % 993,0 hPa 0,0 l/m 18,1 km/h (3 Bft) 0 min 20,9 km/h (4 Bft)
26.02.2010 18:12 13,1 C 7,5 C 0,0 UV-I 0,0 C 54 % 73 % 0 % 993,4 hPa 0,0 l/m 16,1 km/h (3 Bft) 0 min 19,0 km/h (3 Bft)
26.02.2010 18:14 13,1 C 7,5 C 0,0 UV-I 0,0 C 54 % 73 % 0 % 993,4 hPa 0,0 l/m 15,3 km/h (3 Bft) 0 min 13,5 km/h (3 Bft)
26.02.2010 18:16 13,0 C 7,5 C 0,0 UV-I 0,0 C 54 % 74 % 0 % 993,4 hPa 0,0 l/m 15,3 km/h (3 Bft) 0 min 17,8 km/h (3 Bft)
26.02.2010 18:20 13,0 C 7,5 C 0,0 UV-I 0,0 C 54 % 73 % 0 % 993,4 hPa 0,0 l/m 15,3 km/h (3 Bft) 0 min 12,0 km/h (2 Bft)
26.02.2010 18:26 12,9 C 7,5 C 0,0 UV-I 0,0 C 54 % 73 % 0 % 993,4 hPa 0,0 l/m 17,3 km/h (3 Bft) 0 min 15,2 km/h (3 Bft)
26.02.2010 18:28 12,9 C 7,3 C 0,0 UV-I 0,0 C 54 % 75 % 0 % 993,4 hPa 0,0 l/m 20,1 km/h (4 Bft) 0 min 24,1 km/h (4 Bft)
26.02.2010 18:30 12,8 C 7,2 C 0,0 UV-I 0,0 C 55 % 75 % 0 % 993,4 hPa 0,0 l/m 20,9 km/h (4 Bft) 0 min 14,2 km/h (3 Bft)
26.02.2010 18:32 12,8 C 7,2 C 0,0 UV-I 0,0 C 55 % 75 % 0 % 993,7 hPa 0,0 l/m 22,1 km/h (4 Bft) 0 min 14,2 km/h (3 Bft)
26.02.2010 18:34 12,8 C 7,1 C 0,0 UV-I 0,0 C 55 % 76 % 0 % 993,7 hPa 0,0 l/m 22,9 km/h (4 Bft) 0 min 14,7 km/h (3 Bft)
26.02.2010 18:36 12,8 C 7,1 C 0,0 UV-I 0,0 C 55 % 76 % 0 % 993,7 hPa 0,0 l/m 21,3 km/h (4 Bft) 0 min 10,8 km/h (2 Bft)
26.02.2010 18:38 12,8 C 7,0 C 0,0 UV-I 0,0 C 55 % 76 % 0 % 993,7 hPa 0,0 l/m 19,7 km/h (3 Bft) 0 min 4,3 km/h (1 Bft)
26.02.2010 18:44 12,8 C 6,8 C 0,0 UV-I 0,0 C 55 % 76 % 0 % 993,7 hPa 0,1 l/m 14,1 km/h (3 Bft) 0 min 10,6 km/h (2 Bft)
26.02.2010 18:46 12,8 C 6,8 C 0,0 UV-I 0,0 C 55 % 76 % 0 % 993,7 hPa 0,0 l/m 13,3 km/h (3 Bft) 0 min 12,0 km/h (2 Bft)
26.02.2010 18:48 12,8 C 6,8 C 0,0 UV-I 0,0 C 55 % 75 % 0 % 993,7 hPa 0,0 l/m 12,8 km/h (3 Bft) 0 min 9,1 km/h (2 Bft)
26.02.2010 18:52 12,8 C 6,8 C 0,0 UV-I 0,0 C 55 % 75 % 0 % 994,6 hPa 0,0 l/m 12,4 km/h (3 Bft) 0 min 12,5 km/h (3 Bft)
26.02.2010 18:54 13,0 C 6,8 C 0,0 UV-I 0,0 C 55 % 75 % 0 % 994,6 hPa 0,0 l/m 12,0 km/h (2 Bft) 0 min 8,4 km/h (2 Bft)
26.02.2010 19:00 13,1 C 6,7 C 0,0 UV-I 0,0 C 54 % 75 % 0 % 994,6 hPa 0,0 l/m 12,8 km/h (3 Bft) 0 min 18,0 km/h (3 Bft)
26.02.2010 19:04 13,1 C 6,7 C 0,0 UV-I 0,0 C 54 % 75 % 0 % 994,6 hPa 0,0 l/m 13,3 km/h (3 Bft) 0 min 14,0 km/h (3 Bft)
26.02.2010 19:09 13,2 C 6,6 C 0,0 UV-I 0,0 C 53 % 76 % 0 % 994,6 hPa 0,0 l/m 12,4 km/h (3 Bft) 0 min 9,6 km/h (2 Bft)
26.02.2010 19:14 13,2 C 6,7 C 0,0 UV-I 0,0 C 53 % 76 % 0 % 995,2 hPa 0,0 l/m 11,2 km/h (2 Bft) 0 min 4,8 km/h (1 Bft)
26.02.2010 19:19 13,2 C 6,6 C 0,0 UV-I 0,0 C 53 % 77 % 0 % 995,2 hPa 0,0 l/m 10,8 km/h (2 Bft) 0 min 8,4 km/h (2 Bft)
26.02.2010 19:22 13,1 C 6,6 C 0,0 UV-I 0,0 C 53 % 77 % 0 % 995,2 hPa 0,0 l/m 10,8 km/h (2 Bft) 0 min 10,6 km/h (2 Bft)
26.02.2010 19:24 13,1 C 6,5 C 0,0 UV-I 0,0 C 53 % 77 % 0 % 995,2 hPa 0,0 l/m 10,4 km/h (2 Bft) 0 min 7,5 km/h (2 Bft)
26.02.2010 19:26 13,1 C 6,5 C 0,0 UV-I 0,0 C 53 % 77 % 0 % 995,2 hPa 0,0 l/m 11,2 km/h (2 Bft) 0 min 8,2 km/h (2 Bft)
26.02.2010 19:28 13,1 C 6,5 C 0,0 UV-I 0,0 C 53 % 77 % 0 % 995,2 hPa 0,0 l/m 10,8 km/h (2 Bft) 0 min 8,2 km/h (2 Bft)
26.02.2010 19:30 13,1 C 6,5 C 0,0 UV-I 0,0 C 53 % 76 % 0 % 995,2 hPa 0,0 l/m 12,0 km/h (2 Bft) 0 min 13,5 km/h (3 Bft)
26.02.2010 19:32 13,1 C 6,6 C 0,0 UV-I 0,0 C 53 % 76 % 0 % 995,1 hPa 0,0 l/m 12,4 km/h (3 Bft) 0 min 8,9 km/h (2 Bft)
26.02.2010 19:34 13,1 C 6,6 C 0,0 UV-I 0,0 C 53 % 76 % 0 % 995,1 hPa 0,0 l/m 12,4 km/h (3 Bft) 0 min 8,2 km/h (2 Bft)
26.02.2010 19:36 13,3 C 6,6 C 0,0 UV-I 0,0 C 53 % 76 % 0 % 995,1 hPa 0,0 l/m 13,7 km/h (3 Bft) 0 min 13,0 km/h (3 Bft)
26.02.2010 19:38 13,3 C 6,6 C 0,0 UV-I 0,0 C 53 % 76 % 0 % 995,1 hPa 0,0 l/m 14,5 km/h (3 Bft) 0 min 16,4 km/h (3 Bft)
26.02.2010 19:40 13,3 C 6,6 C 0,0 UV-I 0,0 C 53 % 76 % 0 % 995,1 hPa 0,0 l/m 14,1 km/h (3 Bft) 0 min 12,0 km/h (2 Bft)
26.02.2010 19:42 13,3 C 6,6 C 0,0 UV-I 0,0 C 53 % 76 % 0 % 995,1 hPa 0,0 l/m 13,7 km/h (3 Bft) 0 min 7,5 km/h (2 Bft)
26.02.2010 19:44 13,1 C 6,5 C 0,0 UV-I 0,0 C 52 % 76 % 0 % 995,1 hPa 0,0 l/m 13,7 km/h (3 Bft) 0 min 7,9 km/h (2 Bft)
26.02.2010 19:46 13,3 C 6,5 C 0,0 UV-I 0,0 C 53 % 76 % 0 % 995,1 hPa 0,0 l/m 15,3 km/h (3 Bft) 0 min 22,1 km/h (4 Bft)
26.02.2010 19:48 13,3 C 6,6 C 0,0 UV-I 0,0 C 53 % 75 % 0 % 995,1 hPa 0,0 l/m 15,7 km/h (3 Bft) 0 min 12,8 km/h (3 Bft)
26.02.2010 19:50 13,3 C 6,7 C 0,0 UV-I 0,0 C 53 % 76 % 0 % 995,1 hPa 0,0 l/m 15,7 km/h (3 Bft) 0 min 19,0 km/h (3 Bft)
26.02.2010 19:52 13,2 C 6,5 C 0,0 UV-I 0,0 C 53 % 77 % 0 % 995,8 hPa 0,0 l/m 16,9 km/h (3 Bft) 0 min 17,1 km/h (3 Bft)
26.02.2010 19:54 13,2 C 6,4 C 0,0 UV-I 0,0 C 53 % 78 % 0 % 995,8 hPa 0,0 l/m 16,9 km/h (3 Bft) 0 min 6,5 km/h (2 Bft)
26.02.2010 19:56 13,2 C 6,3 C 0,0 UV-I 0,0 C 53 % 79 % 0 % 995,8 hPa 0,1 l/m 16,5 km/h (3 Bft) 0 min 7,2 km/h (2 Bft)
26.02.2010 19:58 13,3 C 6,3 C 0,0 UV-I 0,0 C 53 % 80 % 0 % 995,8 hPa 0,1 l/m 13,3 km/h (3 Bft) 0 min 13,5 km/h (3 Bft)
26.02.2010 20:00 13,2 C 6,1 C 0,0 UV-I 0,0 C 53 % 81 % 0 % 995,8 hPa 0,0 l/m 12,4 km/h (3 Bft) 0 min 5,1 km/h (1 Bft)
26.02.2010 20:02 13,3 C 6,0 C 0,0 UV-I 0,0 C 53 % 82 % 0 % 995,8 hPa 0,1 l/m 10,4 km/h (2 Bft) 0 min 16,8 km/h (3 Bft)
26.02.2010 20:04 13,2 C 5,9 C 0,0 UV-I 0,0 C 53 % 82 % 0 % 995,8 hPa 0,2 l/m 9,2 km/h (2 Bft) 0 min 3,4 km/h (1 Bft)
26.02.2010 20:06 13,3 C 5,8 C 0,0 UV-I 0,0 C 53 % 82 % 0 % 995,8 hPa 0,0 l/m 10,0 km/h (2 Bft) 0 min 8,7 km/h (2 Bft)
26.02.2010 20:08 13,2 C 5,8 C 0,0 UV-I 0,0 C 53 % 83 % 0 % 995,8 hPa 0,2 l/m 10,0 km/h (2 Bft) 0 min 5,5 km/h (1 Bft)
26.02.2010 20:10 13,3 C 5,7 C 0,0 UV-I 0,0 C 53 % 83 % 0 % 995,8 hPa 0,1 l/m 10,4 km/h (2 Bft) 0 min 10,3 km/h (2 Bft)
26.02.2010 20:12 13,3 C 5,6 C 0,0 UV-I 0,0 C 53 % 83 % 0 % 995,7 hPa 0,0 l/m 10,8 km/h (2 Bft) 0 min 7,0 km/h (2 Bft)
26.02.2010 20:14 13,3 C 5,7 C 0,0 UV-I 0,0 C 53 % 83 % 0 % 995,7 hPa 0,1 l/m 10,8 km/h (2 Bft) 0 min 7,0 km/h (2 Bft)
26.02.2010 20:16 13,3 C 5,6 C 0,0 UV-I 0,0 C 53 % 84 % 0 % 995,7 hPa 0,1 l/m 9,6 km/h (2 Bft) 0 min 4,1 km/h (1 Bft)
26.02.2010 20:18 13,1 C 5,6 C 0,0 UV-I 0,0 C 53 % 84 % 0 % 995,7 hPa 0,0 l/m 8,4 km/h (2 Bft) 0 min 4,3 km/h (1 Bft)
26.02.2010 20:20 13,3 C 5,5 C 0,0 UV-I 0,0 C 54 % 84 % 0 % 995,7 hPa 0,0 l/m 7,6 km/h (2 Bft) 0 min 4,3 km/h (1 Bft)
26.02.2010 20:22 13,3 C 5,5 C 0,0 UV-I 0,0 C 54 % 84 % 0 % 995,7 hPa 0,0 l/m 6,8 km/h (2 Bft) 0 min 2,6 km/h (1 Bft)
26.02.2010 20:24 13,3 C 5,5 C 0,0 UV-I 0,0 C 54 % 84 % 0 % 995,7 hPa 0,0 l/m 7,2 km/h (2 Bft) 0 min 11,8 km/h (2 Bft)
26.02.2010 20:26 13,1 C 5,5 C 0,0 UV-I 0,0 C 54 % 84 % 0 % 995,7 hPa 0,0 l/m 7,2 km/h (2 Bft) 0 min 7,7 km/h (2 Bft)
26.02.2010 20:28 13,1 C 5,5 C 0,0 UV-I 0,0 C 54 % 84 % 0 % 995,7 hPa 0,0 l/m 8,0 km/h (2 Bft) 0 min 10,6 km/h (2 Bft)
26.02.2010 20:30 13,3 C 5,4 C 0,0 UV-I 0,0 C 54 % 84 % 0 % 995,7 hPa 0,0 l/m 9,2 km/h (2 Bft) 0 min 6,5 km/h (2 Bft)
26.02.2010 20:32 13,3 C 5,5 C 0,0 UV-I 0,0 C 54 % 84 % 0 % 996,5 hPa 0,0 l/m 11,2 km/h (2 Bft) 0 min 18,5 km/h (3 Bft)
26.02.2010 20:34 13,1 C 5,5 C 0,0 UV-I 0,0 C 54 % 84 % 0 % 996,5 hPa 0,0 l/m 13,3 km/h (3 Bft) 0 min 16,1 km/h (3 Bft)
26.02.2010 20:36 13,1 C 5,5 C 0,0 UV-I 0,0 C 54 % 84 % 0 % 996,5 hPa 0,0 l/m 13,7 km/h (3 Bft) 0 min 8,2 km/h (2 Bft)
26.02.2010 20:38 13,1 C 5,5 C 0,0 UV-I 0,0 C 54 % 84 % 0 % 996,5 hPa 0,1 l/m 14,1 km/h (3 Bft) 0 min 6,7 km/h (2 Bft)
26.02.2010 20:40 13,1 C 5,5 C 0,0 UV-I 0,0 C 54 % 84 % 0 % 996,5 hPa 0,0 l/m 14,1 km/h (3 Bft) 0 min 13,5 km/h (3 Bft)
26.02.2010 20:42 13,1 C 5,5 C 0,0 UV-I 0,0 C 54 % 84 % 0 % 996,5 hPa 0,0 l/m 14,1 km/h (3 Bft) 0 min 7,9 km/h (2 Bft)
26.02.2010 20:44 13,1 C 5,5 C 0,0 UV-I 0,0 C 54 % 84 % 0 % 996,5 hPa 0,0 l/m 13,3 km/h (3 Bft) 0 min 5,1 km/h (1 Bft)
26.02.2010 20:46 13,1 C 5,5 C 0,0 UV-I 0,0 C 54 % 84 % 0 % 996,5 hPa 0,0 l/m 11,2 km/h (2 Bft) 0 min 9,4 km/h (2 Bft)
26.02.2010 20:48 13,1 C 5,5 C 0,0 UV-I 0,0 C 54 % 84 % 0 % 996,5 hPa 0,0 l/m 10,8 km/h (2 Bft) 0 min 8,2 km/h (2 Bft)
26.02.2010 20:50 13,1 C 5,5 C 0,0 UV-I 0,0 C 54 % 84 % 0 % 996,5 hPa 0,0 l/m 10,8 km/h (2 Bft) 0 min 10,6 km/h (2 Bft)
26.02.2010 20:52 13,1 C 5,6 C 0,0 UV-I 0,0 C 54 % 84 % 0 % 996,4 hPa 0,0 l/m 11,6 km/h (2 Bft) 0 min 9,6 km/h (2 Bft)
26.02.2010 20:54 13,1 C 5,6 C 0,0 UV-I 0,0 C 54 % 84 % 0 % 996,4 hPa 0,0 l/m 12,8 km/h (3 Bft) 0 min 9,1 km/h (2 Bft)
26.02.2010 20:56 13,1 C 5,6 C 0,0 UV-I 0,0 C 54 % 84 % 0 % 996,4 hPa 0,0 l/m 14,1 km/h (3 Bft) 0 min 8,2 km/h (2 Bft)
26.02.2010 20:58 13,1 C 5,7 C 0,0 UV-I 0,0 C 54 % 84 % 0 % 996,4 hPa 0,0 l/m 14,9 km/h (3 Bft) 0 min 10,6 km/h (2 Bft)
26.02.2010 21:00 13,1 C 5,7 C 0,0 UV-I 0,0 C 53 % 84 % 0 % 996,4 hPa 0,3 l/m 15,3 km/h (3 Bft) 0 min 6,7 km/h (2 Bft)
26.02.2010 21:02 13,2 C 5,6 C 0,0 UV-I 0,0 C 54 % 84 % 0 % 996,4 hPa 0,5 l/m 14,5 km/h (3 Bft) 0 min 14,4 km/h (3 Bft)
26.02.2010 21:04 13,2 C 5,6 C 0,0 UV-I 0,0 C 54 % 84 % 0 % 996,4 hPa 0,0 l/m 13,3 km/h (3 Bft) 0 min 7,0 km/h (2 Bft)
26.02.2010 21:06 13,2 C 5,6 C 0,0 UV-I 0,0 C 54 % 84 % 0 % 996,4 hPa 0,2 l/m 12,4 km/h (3 Bft) 0 min 5,8 km/h (2 Bft)
26.02.2010 21:08 13,2 C 5,5 C 0,0 UV-I 0,0 C 54 % 84 % 0 % 996,4 hPa 0,1 l/m 10,8 km/h (2 Bft) 0 min 7,5 km/h (2 Bft)
26.02.2010 21:10 13,2 C 5,5 C 0,0 UV-I 0,0 C 54 % 84 % 0 % 996,4 hPa 0,0 l/m 10,4 km/h (2 Bft) 0 min 5,5 km/h (1 Bft)
26.02.2010 21:12 13,2 C 5,5 C 0,0 UV-I 0,0 C 54 % 84 % 0 % 996,6 hPa 0,1 l/m 10,8 km/h (2 Bft) 0 min 10,3 km/h (2 Bft)
26.02.2010 21:14 13,2 C 5,5 C 0,0 UV-I 0,0 C 54 % 84 % 0 % 996,6 hPa 0,0 l/m 10,0 km/h (2 Bft) 0 min 8,2 km/h (2 Bft)
26.02.2010 21:16 13,2 C 5,5 C 0,0 UV-I 0,0 C 54 % 84 % 0 % 996,6 hPa 0,0 l/m 10,4 km/h (2 Bft) 0 min 9,6 km/h (2 Bft)
26.02.2010 21:18 13,2 C 5,5 C 0,0 UV-I 0,0 C 54 % 84 % 0 % 996,6 hPa 0,0 l/m 11,2 km/h (2 Bft) 0 min 6,3 km/h (2 Bft)
26.02.2010 21:20 13,2 C 5,5 C 0,0 UV-I 0,0 C 54 % 84 % 0 % 996,6 hPa 0,0 l/m 10,4 km/h (2 Bft) 0 min 11,1 km/h (2 Bft)
26.02.2010 21:22 13,2 C 5,5 C 0,0 UV-I 0,0 C 54 % 84 % 0 % 996,6 hPa 0,0 l/m 10,0 km/h (2 Bft) 0 min 4,6 km/h (1 Bft)
26.02.2010 21:24 13,2 C 5,6 C 0,0 UV-I 0,0 C 54 % 84 % 0 % 996,6 hPa 0,0 l/m 9,6 km/h (2 Bft) 0 min 5,5 km/h (1 Bft)
26.02.2010 21:26 13,2 C 5,5 C 0,0 UV-I 0,0 C 54 % 84 % 0 % 996,6 hPa 0,0 l/m 9,6 km/h (2 Bft) 0 min 13,0 km/h (3 Bft)
26.02.2010 21:28 13,2 C 5,6 C 0,0 UV-I 0,0 C 54 % 84 % 0 % 996,6 hPa 0,0 l/m 10,0 km/h (2 Bft) 0 min 11,3 km/h (2 Bft)
26.02.2010 21:30 13,2 C 5,6 C 0,0 UV-I 0,0 C 54 % 83 % 0 % 996,6 hPa 0,0 l/m 12,0 km/h (2 Bft) 0 min 23,1 km/h (4 Bft)
26.02.2010 21:32 13,2 C 5,7 C 0,0 UV-I 0,0 C 54 % 82 % 0 % 996,8 hPa 0,0 l/m 12,0 km/h (2 Bft) 0 min 8,2 km/h (2 Bft)
26.02.2010 21:34 13,2 C 5,9 C 0,0 UV-I 0,0 C 53 % 82 % 0 % 996,8 hPa 0,0 l/m 13,3 km/h (3 Bft) 0 min 9,1 km/h (2 Bft)
26.02.2010 21:36 13,1 C 5,8 C 0,0 UV-I 0,0 C 53 % 81 % 0 % 996,8 hPa 0,0 l/m 15,3 km/h (3 Bft) 0 min 9,1 km/h (2 Bft)
26.02.2010 21:38 13,2 C 5,9 C 0,0 UV-I 0,0 C 53 % 81 % 0 % 996,8 hPa 0,0 l/m 17,3 km/h (3 Bft) 0 min 33,4 km/h (5 Bft)
26.02.2010 21:40 13,2 C 6,0 C 0,0 UV-I 0,0 C 53 % 80 % 0 % 996,8 hPa 0,0 l/m 16,9 km/h (3 Bft) 0 min 10,6 km/h (2 Bft)
26.02.2010 21:42 13,1 C 6,0 C 0,0 UV-I 0,0 C 53 % 80 % 0 % 996,8 hPa 0,0 l/m 16,5 km/h (3 Bft) 0 min 9,6 km/h (2 Bft)
26.02.2010 21:44 13,1 C 6,1 C 0,0 UV-I 0,0 C 53 % 80 % 0 % 996,8 hPa 0,0 l/m 15,3 km/h (3 Bft) 0 min 7,2 km/h (2 Bft)
26.02.2010 21:46 13,1 C 6,0 C 0,0 UV-I 0,0 C 53 % 79 % 0 % 996,8 hPa 0,0 l/m 15,7 km/h (3 Bft) 0 min 18,5 km/h (3 Bft)
26.02.2010 21:48 13,1 C 6,1 C 0,0 UV-I 0,0 C 53 % 78 % 0 % 996,8 hPa 0,0 l/m 16,1 km/h (3 Bft) 0 min 27,4 km/h (4 Bft)
26.02.2010 21:50 13,1 C 6,1 C 0,0 UV-I 0,0 C 53 % 78 % 0 % 996,8 hPa 0,0 l/m 14,5 km/h (3 Bft) 0 min 5,5 km/h (1 Bft)
26.02.2010 21:52 13,1 C 6,2 C 0,0 UV-I 0,0 C 53 % 78 % 0 % 997,1 hPa 0,0 l/m 16,1 km/h (3 Bft) 0 min 32,2 km/h (5 Bft)
26.02.2010 21:54 13,1 C 6,2 C 0,0 UV-I 0,0 C 53 % 78 % 0 % 997,1 hPa 0,0 l/m 16,1 km/h (3 Bft) 0 min 15,4 km/h (3 Bft)
26.02.2010 21:56 13,1 C 6,2 C 0,0 UV-I 0,0 C 53 % 77 % 0 % 997,1 hPa 0,0 l/m 16,5 km/h (3 Bft) 0 min 10,3 km/h (2 Bft)
26.02.2010 21:58 13,1 C 6,3 C 0,0 UV-I 0,0 C 52 % 77 % 0 % 997,1 hPa 0,0 l/m 17,3 km/h (3 Bft) 0 min 15,2 km/h (3 Bft)
26.02.2010 22:00 13,1 C 6,3 C 0,0 UV-I 0,0 C 52 % 77 % 0 % 997,1 hPa 0,0 l/m 16,9 km/h (3 Bft) 0 min 9,9 km/h (2 Bft)
26.02.2010 22:02 13,1 C 6,3 C 0,0 UV-I 0,0 C 52 % 77 % 0 % 997,1 hPa 0,0 l/m 17,7 km/h (3 Bft) 0 min 25,0 km/h (4 Bft)
26.02.2010 22:04 13,1 C 6,2 C 0,0 UV-I 0,0 C 52 % 76 % 0 % 997,1 hPa 0,0 l/m 18,5 km/h (3 Bft) 0 min 13,0 km/h (3 Bft)
26.02.2010 22:06 13,1 C 6,3 C 0,0 UV-I 0,0 C 52 % 76 % 0 % 997,1 hPa 0,0 l/m 18,9 km/h (3 Bft) 0 min 16,1 km/h (3 Bft)
26.02.2010 22:08 13,1 C 6,3 C 0,0 UV-I 0,0 C 52 % 76 % 0 % 997,1 hPa 0,0 l/m 18,9 km/h (3 Bft) 0 min 7,9 km/h (2 Bft)
26.02.2010 22:10 13,1 C 6,3 C 0,0 UV-I 0,0 C 52 % 76 % 0 % 997,1 hPa 0,0 l/m 18,1 km/h (3 Bft) 0 min 16,1 km/h (3 Bft)
26.02.2010 22:12 13,1 C 6,3 C 0,0 UV-I 0,0 C 52 % 75 % 0 % 997,6 hPa 0,0 l/m 19,7 km/h (3 Bft) 0 min 21,9 km/h (4 Bft)
26.02.2010 22:14 13,1 C 6,3 C 0,0 UV-I 0,0 C 52 % 75 % 0 % 997,6 hPa 0,0 l/m 19,3 km/h (3 Bft) 0 min 8,7 km/h (2 Bft)
26.02.2010 22:16 13,1 C 6,3 C 0,0 UV-I 0,0 C 52 % 76 % 0 % 997,6 hPa 0,0 l/m 18,1 km/h (3 Bft) 0 min 11,3 km/h (2 Bft)
26.02.2010 22:18 13,1 C 6,3 C 0,0 UV-I 0,0 C 52 % 75 % 0 % 997,6 hPa 0,0 l/m 16,9 km/h (3 Bft) 0 min 22,1 km/h (4 Bft)
26.02.2010 22:20 13,1 C 6,3 C 0,0 UV-I 0,0 C 52 % 75 % 0 % 997,6 hPa 0,0 l/m 17,3 km/h (3 Bft) 0 min 14,4 km/h (3 Bft)
26.02.2010 22:22 12,9 C 6,3 C 0,0 UV-I 0,0 C 51 % 75 % 0 % 997,6 hPa 0,0 l/m 18,1 km/h (3 Bft) 0 min 14,7 km/h (3 Bft)
26.02.2010 22:24 12,9 C 6,3 C 0,0 UV-I 0,0 C 51 % 75 % 0 % 997,6 hPa 0,0 l/m 16,5 km/h (3 Bft) 0 min 11,1 km/h (2 Bft)
26.02.2010 22:26 13,0 C 6,3 C 0,0 UV-I 0,0 C 51 % 75 % 0 % 997,6 hPa 0,0 l/m 16,1 km/h (3 Bft) 0 min 9,6 km/h (2 Bft)
26.02.2010 22:28 13,0 C 6,3 C 0,0 UV-I 0,0 C 51 % 75 % 0 % 997,6 hPa 0,0 l/m 17,3 km/h (3 Bft) 0 min 12,0 km/h (2 Bft)
26.02.2010 22:30 13,0 C 6,3 C 0,0 UV-I 0,0 C 51 % 75 % 0 % 997,6 hPa 0,0 l/m 16,5 km/h (3 Bft) 0 min 9,9 km/h (2 Bft)
26.02.2010 22:32 13,0 C 6,3 C 0,0 UV-I 0,0 C 51 % 75 % 0 % 997,9 hPa 0,0 l/m 15,3 km/h (3 Bft) 0 min 14,4 km/h (3 Bft)
26.02.2010 22:34 12,9 C 6,3 C 0,0 UV-I 0,0 C 51 % 75 % 0 % 997,9 hPa 0,0 l/m 14,9 km/h (3 Bft) 0 min 13,7 km/h (3 Bft)
26.02.2010 22:36 13,0 C 6,2 C 0,0 UV-I 0,0 C 51 % 75 % 0 % 997,9 hPa 0,0 l/m 15,3 km/h (3 Bft) 0 min 26,2 km/h (4 Bft)
26.02.2010 22:38 13,0 C 6,2 C 0,0 UV-I 0,0 C 51 % 75 % 0 % 997,9 hPa 0,0 l/m 16,9 km/h (3 Bft) 0 min 18,3 km/h (3 Bft)
26.02.2010 22:42 13,0 C 6,3 C 0,0 UV-I 0,0 C 51 % 75 % 0 % 997,9 hPa 0,0 l/m 16,5 km/h (3 Bft) 0 min 11,5 km/h (2 Bft)
26.02.2010 22:44 13,0 C 6,3 C 0,0 UV-I 0,0 C 51 % 76 % 0 % 997,9 hPa 0,0 l/m 16,1 km/h (3 Bft) 0 min 14,0 km/h (3 Bft)
26.02.2010 22:46 13,0 C 6,3 C 0,0 UV-I 0,0 C 51 % 76 % 0 % 997,9 hPa 0,0 l/m 15,7 km/h (3 Bft) 0 min 6,3 km/h (2 Bft)
26.02.2010 22:48 13,0 C 6,3 C 0,0 UV-I 0,0 C 51 % 76 % 0 % 997,9 hPa 0,0 l/m 13,7 km/h (3 Bft) 0 min 6,3 km/h (2 Bft)
26.02.2010 22:50 13,0 C 6,3 C 0,0 UV-I 0,0 C 51 % 76 % 0 % 997,9 hPa 0,0 l/m 11,6 km/h (2 Bft) 0 min 0,0 km/h (0 Bft)
26.02.2010 22:52 13,0 C 6,2 C 0,0 UV-I 0,0 C 51 % 76 % 0 % 998,2 hPa 0,0 l/m 12,4 km/h (3 Bft) 0 min 7,9 km/h (2 Bft)
26.02.2010 22:54 13,0 C 6,2 C 0,0 UV-I 0,0 C 51 % 76 % 0 % 998,2 hPa 0,0 l/m 13,3 km/h (3 Bft) 0 min 12,8 km/h (3 Bft)
26.02.2010 22:56 13,0 C 6,1 C 0,0 UV-I 0,0 C 51 % 76 % 0 % 998,2 hPa 0,0 l/m 13,7 km/h (3 Bft) 0 min 13,2 km/h (3 Bft)
26.02.2010 22:58 13,0 C 6,1 C 0,0 UV-I 0,0 C 51 % 76 % 0 % 998,2 hPa 0,0 l/m 14,1 km/h (3 Bft) 0 min 7,0 km/h (2 Bft)
26.02.2010 23:00 13,0 C 6,1 C 0,0 UV-I 0,0 C 51 % 76 % 0 % 998,2 hPa 0,0 l/m 14,9 km/h (3 Bft) 0 min 15,9 km/h (3 Bft)
26.02.2010 23:02 13,0 C 6,1 C 0,0 UV-I 0,0 C 51 % 76 % 0 % 998,2 hPa 0,0 l/m 14,9 km/h (3 Bft) 0 min 10,6 km/h (2 Bft)
26.02.2010 23:04 13,0 C 6,1 C 0,0 UV-I 0,0 C 51 % 76 % 0 % 998,2 hPa 0,0 l/m 16,1 km/h (3 Bft) 0 min 22,9 km/h (4 Bft)
26.02.2010 23:06 13,0 C 6,1 C 0,0 UV-I 0,0 C 51 % 76 % 0 % 998,2 hPa 0,0 l/m 15,7 km/h (3 Bft) 0 min 11,3 km/h (2 Bft)
26.02.2010 23:08 13,0 C 6,1 C 0,0 UV-I 0,0 C 51 % 76 % 0 % 998,2 hPa 0,0 l/m 15,3 km/h (3 Bft) 0 min 11,5 km/h (2 Bft)
26.02.2010 23:10 13,0 C 6,0 C 0,0 UV-I 0,0 C 51 % 76 % 0 % 998,2 hPa 0,0 l/m 14,5 km/h (3 Bft) 0 min 5,3 km/h (1 Bft)
26.02.2010 23:12 13,0 C 6,0 C 0,0 UV-I 0,0 C 51 % 76 % 0 % 998,4 hPa 0,0 l/m 14,9 km/h (3 Bft) 0 min 20,2 km/h (4 Bft)
26.02.2010 23:14 13,0 C 6,0 C 0,0 UV-I 0,0 C 51 % 76 % 0 % 998,4 hPa 0,0 l/m 14,9 km/h (3 Bft) 0 min 13,7 km/h (3 Bft)
26.02.2010 23:16 13,0 C 6,0 C 0,0 UV-I 0,0 C 51 % 76 % 0 % 998,4 hPa 0,0 l/m 15,3 km/h (3 Bft) 0 min 13,0 km/h (3 Bft)
26.02.2010 23:18 13,0 C 6,0 C 0,0 UV-I 0,0 C 51 % 76 % 0 % 998,4 hPa 0,0 l/m 16,1 km/h (3 Bft) 0 min 14,9 km/h (3 Bft)
26.02.2010 23:20 13,0 C 6,0 C 0,0 UV-I 0,0 C 51 % 76 % 0 % 998,4 hPa 0,0 l/m 16,1 km/h (3 Bft) 0 min 13,0 km/h (3 Bft)
26.02.2010 23:22 13,0 C 6,0 C 0,0 UV-I 0,0 C 51 % 76 % 0 % 998,4 hPa 0,0 l/m 17,3 km/h (3 Bft) 0 min 17,6 km/h (3 Bft)
26.02.2010 23:24 13,0 C 6,0 C 0,0 UV-I 0,0 C 51 % 76 % 0 % 998,4 hPa 0,0 l/m 17,3 km/h (3 Bft) 0 min 19,0 km/h (3 Bft)
26.02.2010 23:26 13,0 C 6,0 C 0,0 UV-I 0,0 C 51 % 76 % 0 % 998,4 hPa 0,0 l/m 16,9 km/h (3 Bft) 0 min 12,0 km/h (2 Bft)
26.02.2010 23:28 13,0 C 6,0 C 0,0 UV-I 0,0 C 51 % 76 % 0 % 998,4 hPa 0,0 l/m 15,7 km/h (3 Bft) 0 min 10,3 km/h (2 Bft)
26.02.2010 23:30 12,8 C 6,1 C 0,0 UV-I 0,0 C 51 % 76 % 0 % 998,4 hPa 0,0 l/m 15,7 km/h (3 Bft) 0 min 22,1 km/h (4 Bft)
26.02.2010 23:32 12,8 C 6,1 C 0,0 UV-I 0,0 C 51 % 76 % 0 % 998,8 hPa 0,0 l/m 15,3 km/h (3 Bft) 0 min 9,9 km/h (2 Bft)
26.02.2010 23:34 13,0 C 6,0 C 0,0 UV-I 0,0 C 51 % 76 % 0 % 998,8 hPa 0,0 l/m 16,1 km/h (3 Bft) 0 min 16,4 km/h (3 Bft)
26.02.2010 23:36 12,8 C 6,1 C 0,0 UV-I 0,0 C 51 % 75 % 0 % 998,8 hPa 0,0 l/m 15,7 km/h (3 Bft) 0 min 11,8 km/h (2 Bft)
26.02.2010 23:38 12,8 C 6,0 C 0,0 UV-I 0,0 C 51 % 75 % 0 % 998,8 hPa 0,0 l/m 16,9 km/h (3 Bft) 0 min 11,1 km/h (2 Bft)
26.02.2010 23:40 12,8 C 6,0 C 0,0 UV-I 0,0 C 51 % 75 % 0 % 998,8 hPa 0,0 l/m 17,3 km/h (3 Bft) 0 min 7,0 km/h (2 Bft)
26.02.2010 23:42 12,8 C 6,1 C 0,0 UV-I 0,0 C 51 % 75 % 0 % 998,8 hPa 0,0 l/m 16,1 km/h (3 Bft) 0 min 15,4 km/h (3 Bft)
26.02.2010 23:44 12,8 C 6,0 C 0,0 UV-I 0,0 C 51 % 75 % 0 % 998,8 hPa 0,0 l/m 16,5 km/h (3 Bft) 0 min 14,7 km/h (3 Bft)
26.02.2010 23:46 12,8 C 6,0 C 0,0 UV-I 0,0 C 50 % 75 % 0 % 998,8 hPa 0,0 l/m 15,7 km/h (3 Bft) 0 min 19,0 km/h (3 Bft)
26.02.2010 23:48 12,8 C 6,0 C 0,0 UV-I 0,0 C 50 % 75 % 0 % 998,8 hPa 0,0 l/m 13,7 km/h (3 Bft) 0 min 6,0 km/h (2 Bft)
26.02.2010 23:50 12,8 C 5,9 C 0,0 UV-I 0,0 C 50 % 75 % 0 % 998,8 hPa 0,0 l/m 13,7 km/h (3 Bft) 0 min 13,2 km/h (3 Bft)
26.02.2010 23:52 12,8 C 5,9 C 0,0 UV-I 0,0 C 50 % 75 % 0 % 999,1 hPa 0,0 l/m 14,1 km/h (3 Bft) 0 min 7,9 km/h (2 Bft)
26.02.2010 23:54 12,8 C 5,9 C 0,0 UV-I 0,0 C 50 % 76 % 0 % 999,1 hPa 0,0 l/m 13,7 km/h (3 Bft) 0 min 7,0 km/h (2 Bft)
26.02.2010 23:56 12,8 C 5,9 C 0,0 UV-I 0,0 C 50 % 75 % 0 % 999,1 hPa 0,0 l/m 13,3 km/h (3 Bft) 0 min 5,3 km/h (1 Bft)
26.02.2010 23:58 12,8 C 5,8 C 0,0 UV-I 0,0 C 51 % 76 % 0 % 999,1 hPa 0,0 l/m 12,4 km/h (3 Bft) 0 min 5,5 km/h (1 Bft)
_ Min-Zeit 18:30 20:30 00:02 00:02 23:46 12:06 00:02 05:52 - 00:16 - 00:08
Minimum _ 12,8 C 5,4 C 0,0 UV-I 0,0 C 50 % 72 % 0 % 984,4 hPa - 1,2 km/h (1 Bft) - 0,0 km/h (0 Bft)
_ Max-Zeit 12:02 12:06 11:14 11:20 01:50 03:08 11:20 23:52 21:02 18:34 00:02 11:32
Maximum _ 14,5 C 11,8 C 3,0 UV-I 1,7 C 61 % 93 % 49 % 999,1 hPa 0,5 l/m 22,9 km/h
W (4 Bft)
0 min 39,2 km/h
O-SO (6 Bft)
Durchschnitt _ 13,7 C 8,3 C 0,2 UV-I 0,1 C 58 % 84 % 2 % 989,0 hPa #6,4 l/m 11,7 km/h (2 Bft) #0 min. 10,2 km/h (2 Bft)
© 2012 W. Hausmann